Observation data for Adrian on 01/17/2021      Previous  Date  Next       Current Mesonet Observations  Soil Data  Daily Summary Page  Observations in Plain Language
KAD1 170600Z 08002KT 04/M03 A3013 RMK A01 T00421032  RH  058%=      5-min Rain = 0
KAD1 170601Z 08002KT 04/M03 A3013 RMK A01 T00421032  RH  058%=      5-min Rain = 0
KAD1 170602Z 08001KT 04/M03 A3013 RMK A01 T00421032  RH  059%=      5-min Rain = 0
KAD1 170603Z 08001KT 04/M03 A3013 RMK A01 T00421032  RH  058%=      5-min Rain = 0
KAD1 170604Z 09001KT 04/M03 A3013 RMK A01 T00421032  RH  058%=      5-min Rain = 0
KAD1 170605Z 09001KT 04/M03 A3013 RMK A01 T00421032  RH  058%=      5-min Rain = 0
KAD1 170606Z 10001KT 04/M03 A3013 RMK A01 T00421033  RH  058%=      5-min Rain = 0
KAD1 170607Z 10001KT 04/M04 A3012 RMK A01 T00391035  RH  058%=      5-min Rain = 0
KAD1 170608Z 10002KT 04/M03 A3012 RMK A01 T00381034  RH  059%=      5-min Rain = 0
KAD1 170609Z 11002KT 04/M03 A3012 RMK A01 T00391033  RH  060%=      5-min Rain = 0
KAD1 170610Z 11002KT 04/M03 A3012 RMK A01 T00391034  RH  059%=      5-min Rain = 0
KAD1 170611Z 11002KT 04/M03 A3012 RMK A01 T00381033  RH  060%=      5-min Rain = 0
KAD1 170612Z 11002KT 04/M03 A3012 RMK A01 T00391032  RH  059%=      5-min Rain = 0
KAD1 170613Z 12002KT 04/M03 A3012 RMK A01 T00411032  RH  059%=      5-min Rain = 0
KAD1 170614Z 12002KT 04/M03 A3012 RMK A01 T00411032  RH  059%=      5-min Rain = 0
KAD1 170615Z 12002KT 04/M03 A3012 RMK A01 T00411033  RH  059%=      5-min Rain = 0
KAD1 170616Z 12002KT 04/M03 A3012 RMK A01 T00411033  RH  058%=      5-min Rain = 0
KAD1 170617Z 13001KT 04/M04 A3012 RMK A01 T00391035  RH  059%=      5-min Rain = 0
KAD1 170618Z 15002KT 04/M04 A3012 RMK A01 T00361036  RH  059%=      5-min Rain = 0
KAD1 170619Z 15002KT 03/M04 A3012 RMK A01 T00331038  RH  060%=      5-min Rain = 0
KAD1 170620Z 15002KT 03/M04 A3012 RMK A01 T00311037  RH  061%=      5-min Rain = 0
KAD1 170621Z 15001KT 03/M04 A3012 RMK A01 T00291037  RH  062%=      5-min Rain = 0
KAD1 170622Z 15001KT 03/M04 A3012 RMK A01 T00281037  RH  062%=      5-min Rain = 0
KAD1 170623Z 15001KT 03/M04 A3012 RMK A01 T00251039  RH  063%=      5-min Rain = 0
KAD1 170624Z 15001KT 02/M04 A3012 RMK A01 T00221040  RH  063%=      5-min Rain = 0
KAD1 170625Z 15001KT 02/M04 A3012 RMK A01 T00191041  RH  064%=      5-min Rain = 0
KAD1 170626Z 15001KT 02/M04 A3012 RMK A01 T00171041  RH  065%=      5-min Rain = 0
KAD1 170627Z 15001KT 02/M04 A3012 RMK A01 T00151041  RH  066%=      5-min Rain = 0
KAD1 170628Z 15001KT 01/M04 A3012 RMK A01 T00141041  RH  067%=      5-min Rain = 0
KAD1 170629Z 15001KT 01/M04 A3012 RMK A01 T00131040  RH  067%=      5-min Rain = 0
KAD1 170630Z 15001KT 01/M04 A3012 RMK A01 T00131040  RH  068%=      5-min Rain = 0
KAD1 170631Z 15001KT 01/M04 A3012 RMK A01 T00141039  RH  068%=      5-min Rain = 0
KAD1 170632Z 15001KT 01/M04 A3012 RMK A01 T00141040  RH  068%=      5-min Rain = 0
KAD1 170633Z 15000KT 01/M04 A3012 RMK A01 T00141040  RH  067%=      5-min Rain = 0
KAD1 170634Z 15000KT 01/M04 A3012 RMK A01 T00141039  RH  068%=      5-min Rain = 0
KAD1 170635Z 00000KT 02/M04 A3012 RMK A01 T00171037  RH  068%=      5-min Rain = 0
KAD1 170636Z 00000KT 02/M04 A3012 RMK A01 T00201036  RH  067%=      5-min Rain = 0
KAD1 170637Z 00000KT 02/M03 A3012 RMK A01 T00241032  RH  066%=      5-min Rain = 0
KAD1 170638Z 00000KT 03/M03 A3013 RMK A01 T00301031  RH  064%=      5-min Rain = 0
KAD1 170639Z 00000KT 03/M03 A3013 RMK A01 T00341031  RH  063%=      5-min Rain = 0
KAD1 170640Z 00000KT 04/M03 A3013 RMK A01 T00371031  RH  061%=      5-min Rain = 0
KAD1 170641Z 00000KT 04/M03 A3013 RMK A01 T00391032  RH  060%=      5-min Rain = 0
KAD1 170642Z 00000KT 04/M03 A3013 RMK A01 T00411032  RH  059%=      5-min Rain = 0
KAD1 170643Z 28001KT 04/M04 A3013 RMK A01 T00381039  RH  057%=      5-min Rain = 0
KAD1 170644Z 31002KT 03/M04 A3013 RMK A01 T00281043  RH  060%=      5-min Rain = 0
KAD1 170645Z 32003KT 03/M04 A3013 RMK A01 T00251038  RH  063%=      5-min Rain = 0
KAD1 170646Z 32004KT 02/M04 A3013 RMK A01 T00241038  RH  064%=      5-min Rain = 0
KAD1 170647Z 32004KT 02/M04 A3013 RMK A01 T00221037  RH  065%=      5-min Rain = 0
KAD1 170648Z 33004KT 02/M04 A3013 RMK A01 T00211037  RH  065%=      5-min Rain = 0
KAD1 170649Z 34007KT 02/M04 A3013 RMK A01 T00201037  RH  066%=      5-min Rain = 0
KAD1 170650Z 34008KT 02/M04 A3013 RMK A01 T00181039  RH  066%=      5-min Rain = 0
KAD1 170651Z 34007KT 01/M04 A3013 RMK A01 T00131040  RH  068%=      5-min Rain = 0
KAD1 170652Z 34007KT 01/M04 A3013 RMK A01 T00101040  RH  069%=      5-min Rain = 0
KAD1 170653Z 34007KT 01/M04 A3013 RMK A01 T00071041  RH  070%=      5-min Rain = 0
KAD1 170654Z 33007KT 01/M04 A3013 RMK A01 T00051040  RH  071%=      5-min Rain = 0
KAD1 170655Z 33008KT 00/M04 A3013 RMK A01 T00041040  RH  072%=      5-min Rain = 0
KAD1 170656Z 32008KT 00/M04 A3013 RMK A01 T00031039  RH  073%=      5-min Rain = 0
KAD1 170657Z 32009KT 00/M04 A3013 RMK A01 T00031038  RH  074%=      5-min Rain = 0
KAD1 170658Z 31009KT 01/M04 A3013 RMK A01 T00051037  RH  074%=      5-min Rain = 0
KAD1 170659Z 31009KT 01/M04 A3013 RMK A01 T00051036  RH  074%=      5-min Rain = 0
KAD1 170700Z 31008KT 01/M04 A3013 RMK A01 T00061036  RH  073%=      5-min Rain = 0
KAD1 170701Z 31008KT 01/M04 A3013 RMK A01 T00071036  RH  073%=      5-min Rain = 0
KAD1 170702Z 32008KT 01/M04 A3013 RMK A01 T00071036  RH  073%=      5-min Rain = 0
KAD1 170703Z 32007KT 01/M04 A3013 RMK A01 T00081036  RH  073%=      5-min Rain = 0
KAD1 170704Z 32008KT 01/M04 A3013 RMK A01 T00081036  RH  073%=      5-min Rain = 0
KAD1 170705Z 32008KT 01/M04 A3013 RMK A01 T00071036  RH  073%=      5-min Rain = 0
KAD1 170706Z 31008KT 01/M04 A3013 RMK A01 T00071037  RH  073%=      5-min Rain = 0
KAD1 170707Z 31008KT 01/M04 A3013 RMK A01 T00061037  RH  073%=      5-min Rain = 0
KAD1 170708Z 30008KT 01/M04 A3013 RMK A01 T00051037  RH  073%=      5-min Rain = 0
KAD1 170709Z 30008KT 01/M04 A3013 RMK A01 T00051037  RH  073%=      5-min Rain = 0
KAD1 170710Z 30008KT 01/M04 A3013 RMK A01 T00051037  RH  074%=      5-min Rain = 0
KAD1 170711Z 30007KT 00/M04 A3013 RMK A01 T00041037  RH  074%=      5-min Rain = 0
KAD1 170712Z 30007KT 00/M04 A3013 RMK A01 T00031038  RH  074%=      5-min Rain = 0
KAD1 170713Z 30007KT 00/M04 A3013 RMK A01 T00031038  RH  074%=      5-min Rain = 0
KAD1 170714Z 30008KT 00/M04 A3013 RMK A01 T00021038  RH  074%=      5-min Rain = 0
KAD1 170715Z 30007KT 00/M04 A3013 RMK A01 T00031037  RH  074%=      5-min Rain = 0
KAD1 170716Z 30007KT 00/M04 A3014 RMK A01 T00031037  RH  074%=      5-min Rain = 0
KAD1 170717Z 31006KT 00/M04 A3014 RMK A01 T00031038  RH  074%=      5-min Rain = 0
KAD1 170718Z 30007KT 00/M04 A3014 RMK A01 T00021038  RH  074%=      5-min Rain = 0
KAD1 170719Z 31006KT 00/M04 A3014 RMK A01 T00011039  RH  074%=      5-min Rain = 0
KAD1 170720Z 31006KT 00/04 A3014 RMK A01 T00-00-40  RH  075%=      5-min Rain = 0
KAD1 170721Z 32007KT M00/M04 A3014 RMK A01 T10021041  RH  075%=      5-min Rain = 0
KAD1 170722Z 32007KT M00/M04 A3014 RMK A01 T10041042  RH  076%=      5-min Rain = 0
KAD1 170723Z 32008KT M01/M04 A3014 RMK A01 T10061043  RH  076%=      5-min Rain = 0
KAD1 170724Z 34010KT M01/M04 A3015 RMK A01 T10071043  RH  077%=      5-min Rain = 0
KAD1 170725Z 35010KT M01/M04 A3015 RMK A01 T10081043  RH  077%=      5-min Rain = 0
KAD1 170726Z 34009KT M01/M04 A3015 RMK A01 T10091044  RH  077%=      5-min Rain = 0
KAD1 170727Z 34007KT M01/M04 A3015 RMK A01 T10091044  RH  077%=      5-min Rain = 0
KAD1 170728Z 33006KT M01/M04 A3015 RMK A01 T10101044  RH  078%=      5-min Rain = 0
KAD1 170729Z 33006KT M01/M04 A3015 RMK A01 T10111044  RH  078%=      5-min Rain = 0
KAD1 170730Z 33006KT M01/M04 A3015 RMK A01 T10111044  RH  078%=      5-min Rain = 0
KAD1 170731Z 33006KT M01/M04 A3015 RMK A01 T10111044  RH  078%=      5-min Rain = 0
KAD1 170732Z 33006KT M01/M04 A3015 RMK A01 T10111044  RH  078%=      5-min Rain = 0
KAD1 170733Z 32006KT M01/M04 A3015 RMK A01 T10111044  RH  078%=      5-min Rain = 0
KAD1 170734Z 32006KT M01/M05 A3015 RMK A01 T10111045  RH  078%=      5-min Rain = 0
KAD1 170735Z 32005KT M01/M05 A3015 RMK A01 T10111045  RH  078%=      5-min Rain = 0
KAD1 170736Z 32006KT M01/M05 A3015 RMK A01 T10111045  RH  078%=      5-min Rain = 0
KAD1 170737Z 32006KT M01/M05 A3015 RMK A01 T10111045  RH  078%=      5-min Rain = 0
KAD1 170738Z 31006KT M01/M05 A3015 RMK A01 T10111045  RH  078%=      5-min Rain = 0
KAD1 170739Z 31005KT M01/M05 A3015 RMK A01 T10101045  RH  077%=      5-min Rain = 0
KAD1 170740Z 31005KT M01/M05 A3015 RMK A01 T10101046  RH  077%=      5-min Rain = 0
KAD1 170741Z 31005KT M01/M05 A3015 RMK A01 T10101046  RH  077%=      5-min Rain = 0
KAD1 170742Z 31006KT M01/M05 A3015 RMK A01 T10101046  RH  077%=      5-min Rain = 0
KAD1 170743Z 31006KT M01/M05 A3015 RMK A01 T10101046  RH  077%=      5-min Rain = 0
KAD1 170744Z 31006KT M01/M05 A3015 RMK A01 T10101046  RH  076%=      5-min Rain = 0
KAD1 170745Z 30007KT M01/M05 A3015 RMK A01 T10091046  RH  076%=      5-min Rain = 0
KAD1 170746Z 31006KT M01/M05 A3015 RMK A01 T10091046  RH  076%=      5-min Rain = 0
KAD1 170747Z 32005KT M01/M05 A3015 RMK A01 T10091046  RH  076%=      5-min Rain = 0
KAD1 170748Z 31004KT M01/M05 A3015 RMK A01 T10091046  RH  076%=      5-min Rain = 0
KAD1 170749Z 31004KT M01/M05 A3015 RMK A01 T10091046  RH  076%=      5-min Rain = 0
KAD1 170750Z 31004KT M01/M05 A3015 RMK A01 T10091046  RH  076%=      5-min Rain = 0
KAD1 170751Z 31005KT M01/M05 A3015 RMK A01 T10081046  RH  076%=      5-min Rain = 0
KAD1 170752Z 30005KT M01/M05 A3015 RMK A01 T10081045  RH  076%=      5-min Rain = 0
KAD1 170753Z 30005KT M01/M05 A3015 RMK A01 T10071046  RH  075%=      5-min Rain = 0
KAD1 170754Z 30005KT M01/M05 A3015 RMK A01 T10091049  RH  074%=      5-min Rain = 0
KAD1 170755Z 29005KT M01/M05 A3015 RMK A01 T10111050  RH  075%=      5-min Rain = 0
KAD1 170756Z 29005KT M01/M05 A3015 RMK A01 T10131051  RH  075%=      5-min Rain = 0
KAD1 170757Z 29005KT M01/M05 A3015 RMK A01 T10131048  RH  077%=      5-min Rain = 0
KAD1 170758Z 28005KT M01/M05 A3015 RMK A01 T10111047  RH  076%=      5-min Rain = 0
KAD1 170759Z 29005KT M01/M05 A3015 RMK A01 T10111048  RH  076%=      5-min Rain = 0
KAD1 170800Z 29005KT M01/M05 A3015 RMK A01 T10121050  RH  075%=      5-min Rain = 0
KAD1 170801Z 29005KT M02/M05 A3015 RMK A01 T10161054  RH  075%=      5-min Rain = 0
KAD1 170802Z 29005KT M02/M05 A3015 RMK A01 T10191054  RH  077%=      5-min Rain = 0
KAD1 170803Z 29005KT M02/M05 A3015 RMK A01 T10191052  RH  078%=      5-min Rain = 0
KAD1 170804Z 29005KT M02/M05 A3015 RMK A01 T10171049  RH  079%=      5-min Rain = 0
KAD1 170805Z 29005KT M02/M05 A3015 RMK A01 T10161048  RH  079%=      5-min Rain = 0
KAD1 170806Z 29005KT M01/M05 A3015 RMK A01 T10131046  RH  079%=      5-min Rain = 0
KAD1 170807Z 29005KT M01/M04 A3015 RMK A01 T10091043  RH  078%=      5-min Rain = 0
KAD1 170808Z 29004KT M01/M04 A3015 RMK A01 T10061041  RH  077%=      5-min Rain = 0
KAD1 170809Z 29004KT M00/M04 A3015 RMK A01 T10021040  RH  076%=      5-min Rain = 0
KAD1 170810Z 29005KT M00/M04 A3014 RMK A01 T10011041  RH  074%=      5-min Rain = 0
KAD1 170811Z 29005KT 00/04 A3014 RMK A01 T00-00-42  RH  073%=      5-min Rain = 0
KAD1 170812Z 30005KT M00/M04 A3014 RMK A01 T10011043  RH  073%=      5-min Rain = 0
KAD1 170813Z 30005KT M00/M04 A3014 RMK A01 T10011042  RH  074%=      5-min Rain = 0
KAD1 170814Z 30004KT 00/M04 A3014 RMK A01 T00011040  RH  074%=      5-min Rain = 0
KAD1 170815Z 30004KT 00/M04 A3014 RMK A01 T00041037  RH  074%=      5-min Rain = 0
KAD1 170816Z 30004KT 01/M04 A3014 RMK A01 T00071036  RH  073%=      5-min Rain = 0
KAD1 170817Z 30004KT 01/M04 A3014 RMK A01 T00091037  RH  072%=      5-min Rain = 0
KAD1 170818Z 30005KT 01/M04 A3014 RMK A01 T00081039  RH  071%=      5-min Rain = 0
KAD1 170819Z 30005KT 01/M04 A3014 RMK A01 T00071039  RH  071%=      5-min Rain = 0
KAD1 170820Z 30005KT 01/M04 A3014 RMK A01 T00061040  RH  071%=      5-min Rain = 0
KAD1 170821Z 31005KT 01/M04 A3014 RMK A01 T00051041  RH  072%=      5-min Rain = 0
KAD1 170822Z 31005KT 01/M04 A3014 RMK A01 T00051038  RH  073%=      5-min Rain = 0
KAD1 170823Z 32004KT 01/M04 A3014 RMK A01 T00071036  RH  073%=      5-min Rain = 0
KAD1 170824Z 32004KT 01/M04 A3014 RMK A01 T00091035  RH  072%=      5-min Rain = 0
KAD1 170825Z 32004KT 01/M04 A3014 RMK A01 T00111035  RH  071%=      5-min Rain = 0
KAD1 170826Z 32004KT 01/M04 A3014 RMK A01 T00111036  RH  071%=      5-min Rain = 0
KAD1 170827Z 32004KT 01/M04 A3014 RMK A01 T00111036  RH  071%=      5-min Rain = 0
KAD1 170828Z 33004KT 01/M04 A3014 RMK A01 T00111037  RH  071%=      5-min Rain = 0
KAD1 170829Z 32004KT 01/M04 A3014 RMK A01 T00101037  RH  071%=      5-min Rain = 0
KAD1 170830Z 33004KT 01/M04 A3014 RMK A01 T00101036  RH  071%=      5-min Rain = 0
KAD1 170831Z 33004KT 01/M03 A3014 RMK A01 T00121034  RH  071%=      5-min Rain = 0
KAD1 170832Z 33004KT 02/M03 A3014 RMK A01 T00151033  RH  071%=      5-min Rain = 0
KAD1 170833Z 33004KT 02/M03 A3014 RMK A01 T00161034  RH  070%=      5-min Rain = 0
KAD1 170834Z 33004KT 02/M04 A3014 RMK A01 T00151036  RH  069%=      5-min Rain = 0
KAD1 170835Z 34004KT 01/M04 A3014 RMK A01 T00121039  RH  069%=      5-min Rain = 0
KAD1 170836Z 34004KT 01/M04 A3014 RMK A01 T00111036  RH  071%=      5-min Rain = 0
KAD1 170837Z 34004KT 01/M03 A3014 RMK A01 T00141033  RH  071%=      5-min Rain = 0
KAD1 170838Z 34004KT 02/M03 A3014 RMK A01 T00161032  RH  070%=      5-min Rain = 0
KAD1 170839Z 34004KT 02/M03 A3014 RMK A01 T00171033  RH  069%=      5-min Rain = 0
KAD1 170840Z 34004KT 02/M03 A3014 RMK A01 T00171034  RH  069%=      5-min Rain = 0
KAD1 170841Z 34004KT 02/M04 A3014 RMK A01 T00161035  RH  069%=      5-min Rain = 0
KAD1 170842Z 34004KT 02/M04 A3014 RMK A01 T00161035  RH  069%=      5-min Rain = 0
KAD1 170843Z 34004KT 02/M03 A3014 RMK A01 T00161034  RH  069%=      5-min Rain = 0
KAD1 170844Z 34004KT 02/M03 A3014 RMK A01 T00171034  RH  069%=      5-min Rain = 0
KAD1 170845Z 34004KT 02/M03 A3014 RMK A01 T00171034  RH  069%=      5-min Rain = 0
KAD1 170846Z 34004KT 02/M03 A3014 RMK A01 T00171034  RH  069%=      5-min Rain = 0
KAD1 170847Z 34004KT 02/M03 A3014 RMK A01 T00171034  RH  069%=      5-min Rain = 0
KAD1 170848Z 34004KT 02/M03 A3014 RMK A01 T00171034  RH  069%=      5-min Rain = 0
KAD1 170849Z 35004KT 02/M03 A3013 RMK A01 T00171034  RH  069%=      5-min Rain = 0
KAD1 170850Z 35004KT 02/M03 A3013 RMK A01 T00171034  RH  069%=      5-min Rain = 0
KAD1 170851Z 35004KT 02/M04 A3013 RMK A01 T00171035  RH  069%=      5-min Rain = 0
KAD1 170852Z 00004KT 02/M04 A3013 RMK A01 T00161035  RH  069%=      5-min Rain = 0
KAD1 170853Z 01003KT 02/M03 A3013 RMK A01 T00161034  RH  069%=      5-min Rain = 0
KAD1 170854Z 01004KT 02/M03 A3013 RMK A01 T00161034  RH  069%=      5-min Rain = 0
KAD1 170855Z 01004KT 02/M03 A3013 RMK A01 T00171034  RH  069%=      5-min Rain = 0
KAD1 170856Z 01004KT 02/M04 A3013 RMK A01 T00171035  RH  069%=      5-min Rain = 0
KAD1 170857Z 01004KT 02/M03 A3013 RMK A01 T00171034  RH  069%=      5-min Rain = 0
KAD1 170858Z 01004KT 02/M04 A3013 RMK A01 T00181035  RH  068%=      5-min Rain = 0
KAD1 170859Z 02005KT 02/M04 A3013 RMK A01 T00171035  RH  068%=      5-min Rain = 0
KAD1 170900Z 02005KT 02/M04 A3013 RMK A01 T00161035  RH  069%=      5-min Rain = 0
KAD1 170901Z 02005KT 02/M04 A3013 RMK A01 T00171035  RH  068%=      5-min Rain = 0
KAD1 170902Z 02006KT 02/M04 A3013 RMK A01 T00171037  RH  067%=      5-min Rain = 0
KAD1 170903Z 02006KT 02/M04 A3013 RMK A01 T00171038  RH  067%=      5-min Rain = 0
KAD1 170904Z 02005KT 02/M04 A3013 RMK A01 T00161039  RH  067%=      5-min Rain = 0
KAD1 170905Z 02005KT 02/M04 A3013 RMK A01 T00151039  RH  067%=      5-min Rain = 0
KAD1 170906Z 02005KT 01/M04 A3013 RMK A01 T00141040  RH  067%=      5-min Rain = 0
KAD1 170907Z 02005KT 01/M04 A3013 RMK A01 T00131041  RH  067%=      5-min Rain = 0
KAD1 170908Z 03006KT 01/M04 A3013 RMK A01 T00111044  RH  067%=      5-min Rain = 0
KAD1 170909Z 03006KT 01/M05 A3013 RMK A01 T00091045  RH  067%=      5-min Rain = 0
KAD1 170910Z 03006KT 01/M05 A3013 RMK A01 T00081047  RH  066%=      5-min Rain = 0
KAD1 170911Z 04006KT 01/M05 A3013 RMK A01 T00081047  RH  067%=      5-min Rain = 0
KAD1 170912Z 04006KT 01/M05 A3013 RMK A01 T00081048  RH  066%=      5-min Rain = 0
KAD1 170913Z 04006KT 01/M05 A3013 RMK A01 T00081049  RH  066%=      5-min Rain = 0
KAD1 170914Z 04006KT 01/M05 A3013 RMK A01 T00081048  RH  066%=      5-min Rain = 0
KAD1 170915Z 04006KT 01/M05 A3013 RMK A01 T00081046  RH  067%=      5-min Rain = 0
KAD1 170916Z 04006KT 01/M05 A3013 RMK A01 T00081046  RH  067%=      5-min Rain = 0
KAD1 170917Z 04006KT 01/M05 A3013 RMK A01 T00051049  RH  067%=      5-min Rain = 0
KAD1 170918Z 04006KT 00/M05 A3013 RMK A01 T00041049  RH  067%=      5-min Rain = 0
KAD1 170919Z 04005KT 00/M05 A3013 RMK A01 T00031050  RH  068%=      5-min Rain = 0
KAD1 170920Z 03005KT 00/M05 A3013 RMK A01 T00021051  RH  068%=      5-min Rain = 0
KAD1 170921Z 04006KT 00/M05 A3014 RMK A01 T00011051  RH  068%=      5-min Rain = 0
KAD1 170922Z 04006KT 00/05 A3014 RMK A01 T00000-51  RH  069%=      5-min Rain = 0
KAD1 170923Z 03006KT 00/05 A3014 RMK A01 T00-00-51  RH  069%=      5-min Rain = 0
KAD1 170924Z 03006KT M00/M05 A3014 RMK A01 T10021052  RH  069%=      5-min Rain = 0
KAD1 170925Z 03006KT M00/M05 A3014 RMK A01 T10021052  RH  069%=      5-min Rain = 0
KAD1 170926Z 03006KT M00/M05 A3014 RMK A01 T10021052  RH  069%=      5-min Rain = 0
KAD1 170927Z 03006KT M00/M05 A3014 RMK A01 T10021054  RH  068%=      5-min Rain = 0
KAD1 170928Z 03006KT M00/M06 A3014 RMK A01 T10031057  RH  067%=      5-min Rain = 0
KAD1 170929Z 03006KT M00/M06 A3014 RMK A01 T10031059  RH  066%=      5-min Rain = 0
KAD1 170930Z 03006KT M00/M06 A3014 RMK A01 T10041060  RH  065%=      5-min Rain = 0
KAD1 170931Z 03007KT M00/M06 A3014 RMK A01 T10041061  RH  065%=      5-min Rain = 0
KAD1 170932Z 03007KT M00/M06 A3014 RMK A01 T10041062  RH  065%=      5-min Rain = 0
KAD1 170933Z 03007KT M00/M06 A3015 RMK A01 T10041063  RH  064%=      5-min Rain = 0
KAD1 170934Z 03007KT M00/M07 A3015 RMK A01 T10031065  RH  063%=      5-min Rain = 0
KAD1 170935Z 03007KT M01/M07 A3015 RMK A01 T10051066  RH  063%=      5-min Rain = 0
KAD1 170936Z 03007KT M01/M07 A3015 RMK A01 T10051065  RH  064%=      5-min Rain = 0
KAD1 170937Z 03007KT M01/M07 A3015 RMK A01 T10061066  RH  064%=      5-min Rain = 0
KAD1 170938Z 03007KT M01/M07 A3015 RMK A01 T10061067  RH  063%=      5-min Rain = 0
KAD1 170939Z 03007KT M01/M07 A3015 RMK A01 T10061067  RH  063%=      5-min Rain = 0
KAD1 170940Z 03007KT M01/M07 A3015 RMK A01 T10061066  RH  064%=      5-min Rain = 0
KAD1 170941Z 03007KT M01/M07 A3015 RMK A01 T10061067  RH  064%=      5-min Rain = 0
KAD1 170942Z 03007KT M01/M07 A3015 RMK A01 T10081068  RH  064%=      5-min Rain = 0
KAD1 170943Z 03007KT M01/M07 A3014 RMK A01 T10081068  RH  064%=      5-min Rain = 0
KAD1 170944Z 04007KT M01/M07 A3014 RMK A01 T10081068  RH  063%=      5-min Rain = 0
KAD1 170945Z 04006KT M01/M07 A3014 RMK A01 T10071069  RH  063%=      5-min Rain = 0
KAD1 170946Z 04007KT M01/M07 A3014 RMK A01 T10081069  RH  063%=      5-min Rain = 0
KAD1 170947Z 04006KT M01/M07 A3014 RMK A01 T10081069  RH  063%=      5-min Rain = 0
KAD1 170948Z 04007KT M01/M07 A3014 RMK A01 T10071069  RH  063%=      5-min Rain = 0
KAD1 170949Z 04007KT M01/M07 A3014 RMK A01 T10061069  RH  063%=      5-min Rain = 0
KAD1 170950Z 04007KT M01/M07 A3014 RMK A01 T10051069  RH  062%=      5-min Rain = 0
KAD1 170951Z 04006KT M00/M07 A3014 RMK A01 T10041070  RH  061%=      5-min Rain = 0
KAD1 170952Z 04006KT M00/M07 A3014 RMK A01 T10041072  RH  060%=      5-min Rain = 0
KAD1 170953Z 04006KT M01/M07 A3014 RMK A01 T10051073  RH  060%=      5-min Rain = 0
KAD1 170954Z 04006KT M01/M07 A3014 RMK A01 T10061073  RH  061%=      5-min Rain = 0
KAD1 170955Z 04007KT M01/M07 A3014 RMK A01 T10061072  RH  061%=      5-min Rain = 0
KAD1 170956Z 04006KT M00/M07 A3014 RMK A01 T10041071  RH  060%=      5-min Rain = 0
KAD1 170957Z 04006KT M00/M07 A3014 RMK A01 T10031072  RH  060%=      5-min Rain = 0
KAD1 170958Z 04006KT M00/M07 A3014 RMK A01 T10041073  RH  060%=      5-min Rain = 0
KAD1 170959Z 03007KT M00/M07 A3014 RMK A01 T10031073  RH  059%=      5-min Rain = 0
KAD1 171000Z 04007KT M00/M07 A3014 RMK A01 T10021073  RH  059%=      5-min Rain = 0
KAD1 171001Z 04006KT M00/M07 A3014 RMK A01 T10031074  RH  059%=      5-min Rain = 0
KAD1 171002Z 04006KT M00/M07 A3014 RMK A01 T10031073  RH  059%=      5-min Rain = 0
KAD1 171003Z 04006KT M00/M07 A3014 RMK A01 T10041074  RH  059%=      5-min Rain = 0
KAD1 171004Z 04006KT M00/M08 A3014 RMK A01 T10041075  RH  059%=      5-min Rain = 0
KAD1 171005Z 04007KT M00/M08 A3014 RMK A01 T10041076  RH  058%=      5-min Rain = 0
KAD1 171006Z 04007KT M00/M08 A3014 RMK A01 T10031076  RH  058%=      5-min Rain = 0
KAD1 171007Z 04007KT M00/M08 A3014 RMK A01 T10041077  RH  058%=      5-min Rain = 0
KAD1 171008Z 04007KT M01/M08 A3014 RMK A01 T10051077  RH  058%=      5-min Rain = 0
KAD1 171009Z 05006KT M00/M08 A3014 RMK A01 T10041077  RH  058%=      5-min Rain = 0
KAD1 171010Z 04007KT M01/M08 A3014 RMK A01 T10061079  RH  058%=      5-min Rain = 0
KAD1 171011Z 05006KT M01/M08 A3014 RMK A01 T10081079  RH  058%=      5-min Rain = 0
KAD1 171012Z 05006KT M01/M08 A3014 RMK A01 T10081078  RH  059%=      5-min Rain = 0
KAD1 171013Z 05007KT M01/M08 A3013 RMK A01 T10091079  RH  059%=      5-min Rain = 0
KAD1 171014Z 05007KT M01/M08 A3013 RMK A01 T10091080  RH  058%=      5-min Rain = 0
KAD1 171015Z 05007KT M01/M08 A3013 RMK A01 T10091081  RH  058%=      5-min Rain = 0
KAD1 171016Z 06007KT M01/M08 A3013 RMK A01 T10091081  RH  058%=      5-min Rain = 0
KAD1 171017Z 06007KT M01/M08 A3013 RMK A01 T10091081  RH  058%=      5-min Rain = 0
KAD1 171018Z 06006KT M01/M08 A3013 RMK A01 T10091080  RH  059%=      5-min Rain = 0
KAD1 171019Z 06006KT M01/M08 A3013 RMK A01 T10091080  RH  059%=      5-min Rain = 0
KAD1 171020Z 06007KT M01/M08 A3013 RMK A01 T10091081  RH  058%=      5-min Rain = 0
KAD1 171021Z 06006KT M01/M08 A3013 RMK A01 T10101082  RH  058%=      5-min Rain = 0
KAD1 171022Z 07006KT M01/M08 A3013 RMK A01 T10101082  RH  058%=      5-min Rain = 0
KAD1 171023Z 07006KT M01/M08 A3012 RMK A01 T10101081  RH  059%=      5-min Rain = 0
KAD1 171024Z 07006KT M01/M08 A3012 RMK A01 T10081080  RH  058%=      5-min Rain = 0
KAD1 171025Z 07006KT M01/M08 A3012 RMK A01 T10081080  RH  058%=      5-min Rain = 0
KAD1 171026Z 07007KT M01/M08 A3012 RMK A01 T10091081  RH  058%=      5-min Rain = 0
KAD1 171027Z 07007KT M01/M08 A3012 RMK A01 T10101082  RH  058%=      5-min Rain = 0
KAD1 171028Z 07007KT M01/M08 A3012 RMK A01 T10101081  RH  059%=      5-min Rain = 0
KAD1 171029Z 07007KT M01/M08 A3012 RMK A01 T10111082  RH  059%=      5-min Rain = 0
KAD1 171030Z 07007KT M01/M08 A3012 RMK A01 T10111081  RH  059%=      5-min Rain = 0
KAD1 171031Z 07006KT M01/M08 A3012 RMK A01 T10121082  RH  059%=      5-min Rain = 0
KAD1 171032Z 07006KT M01/M08 A3012 RMK A01 T10131082  RH  059%=      5-min Rain = 0
KAD1 171033Z 07006KT M01/M08 A3012 RMK A01 T10131082  RH  059%=      5-min Rain = 0
KAD1 171034Z 07007KT M01/M08 A3012 RMK A01 T10121082  RH  059%=      5-min Rain = 0
KAD1 171035Z 07006KT M01/M08 A3012 RMK A01 T10111081  RH  059%=      5-min Rain = 0
KAD1 171036Z 06006KT M01/M08 A3012 RMK A01 T10101082  RH  058%=      5-min Rain = 0
KAD1 171037Z 06006KT M01/M08 A3012 RMK A01 T10101082  RH  058%=      5-min Rain = 0
KAD1 171038Z 06007KT M01/M08 A3012 RMK A01 T10101082  RH  058%=      5-min Rain = 0
KAD1 171039Z 06007KT M01/M08 A3012 RMK A01 T10081081  RH  058%=      5-min Rain = 0
KAD1 171040Z 07007KT M01/M08 A3012 RMK A01 T10071081  RH  057%=      5-min Rain = 0
KAD1 171041Z 07007KT M01/M08 A3012 RMK A01 T10071081  RH  057%=      5-min Rain = 0
KAD1 171042Z 07008KT M01/M08 A3012 RMK A01 T10071082  RH  057%=      5-min Rain = 0
KAD1 171043Z 07008KT M01/M08 A3012 RMK A01 T10071082  RH  057%=      5-min Rain = 0
KAD1 171044Z 07006KT M00/M08 A3012 RMK A01 T10031079  RH  056%=      5-min Rain = 0
KAD1 171045Z 07006KT M00/M08 A3012 RMK A01 T10041081  RH  056%=      5-min Rain = 0
KAD1 171046Z 07006KT M01/M08 A3012 RMK A01 T10061082  RH  056%=      5-min Rain = 0
KAD1 171047Z 07005KT M01/M08 A3012 RMK A01 T10071082  RH  057%=      5-min Rain = 0
KAD1 171048Z 08006KT M01/M08 A3012 RMK A01 T10091082  RH  058%=      5-min Rain = 0
KAD1 171049Z 08006KT M01/M08 A3012 RMK A01 T10111082  RH  058%=      5-min Rain = 0
KAD1 171050Z 08006KT M01/M08 A3012 RMK A01 T10131083  RH  059%=      5-min Rain = 0
KAD1 171051Z 08006KT M01/M08 A3012 RMK A01 T10141082  RH  060%=      5-min Rain = 0
KAD1 171052Z 08006KT M01/M08 A3012 RMK A01 T10141082  RH  060%=      5-min Rain = 0
KAD1 171053Z 07006KT M01/M08 A3012 RMK A01 T10141082  RH  060%=      5-min Rain = 0
KAD1 171054Z 07006KT M01/M08 A3012 RMK A01 T10131082  RH  060%=      5-min Rain = 0
KAD1 171055Z 07006KT M01/M08 A3012 RMK A01 T10141083  RH  059%=      5-min Rain = 0
KAD1 171056Z 07006KT M01/M08 A3012 RMK A01 T10141083  RH  060%=      5-min Rain = 0
KAD1 171057Z 07006KT M02/M08 A3012 RMK A01 T10151083  RH  060%=      5-min Rain = 0
KAD1 171058Z 07006KT M02/M08 A3012 RMK A01 T10161083  RH  060%=      5-min Rain = 0
KAD1 171059Z 06006KT M02/M08 A3012 RMK A01 T10161084  RH  060%=      5-min Rain = 0
KAD1 171100Z 06006KT M02/M08 A3013 RMK A01 T10161084  RH  060%=      5-min Rain = 0
KAD1 171101Z 06006KT M01/M08 A3013 RMK A01 T10141082  RH  060%=      5-min Rain = 0
KAD1 171102Z 07006KT M01/M08 A3013 RMK A01 T10131082  RH  059%=      5-min Rain = 0
KAD1 171103Z 07006KT M01/M08 A3013 RMK A01 T10121082  RH  059%=      5-min Rain = 0
KAD1 171104Z 07006KT M01/M08 A3013 RMK A01 T10111081  RH  059%=      5-min Rain = 0
KAD1 171105Z 07006KT M01/M08 A3013 RMK A01 T10101081  RH  059%=      5-min Rain = 0
KAD1 171106Z 07006KT M01/M08 A3013 RMK A01 T10101082  RH  058%=      5-min Rain = 0
KAD1 171107Z 07006KT M01/M08 A3013 RMK A01 T10111082  RH  059%=      5-min Rain = 0
KAD1 171108Z 07006KT M01/M08 A3013 RMK A01 T10111082  RH  059%=      5-min Rain = 0
KAD1 171109Z 07006KT M01/M08 A3013 RMK A01 T10111082  RH  059%=      5-min Rain = 0
KAD1 171110Z 07006KT M01/M08 A3012 RMK A01 T10111082  RH  059%=      5-min Rain = 0
KAD1 171111Z 07006KT M01/M08 A3012 RMK A01 T10111081  RH  059%=      5-min Rain = 0
KAD1 171112Z 07006KT M01/M08 A3013 RMK A01 T10111081  RH  059%=      5-min Rain = 0
KAD1 171113Z 07006KT M01/M08 A3013 RMK A01 T10111081  RH  059%=      5-min Rain = 0
KAD1 171114Z 07006KT M01/M08 A3013 RMK A01 T10111081  RH  059%=      5-min Rain = 0
KAD1 171115Z 06006KT M01/M08 A3013 RMK A01 T10111081  RH  059%=      5-min Rain = 0
KAD1 171116Z 07006KT M01/M08 A3013 RMK A01 T10111081  RH  059%=      5-min Rain = 0
KAD1 171117Z 06006KT M01/M08 A3013 RMK A01 T10111081  RH  059%=      5-min Rain = 0
KAD1 171118Z 07006KT M01/M08 A3013 RMK A01 T10111081  RH  059%=      5-min Rain = 0
KAD1 171119Z 07006KT M01/M08 A3013 RMK A01 T10101081  RH  059%=      5-min Rain = 0
KAD1 171120Z 07005KT M01/M08 A3013 RMK A01 T10111082  RH  058%=      5-min Rain = 0
KAD1 171121Z 07006KT M01/M08 A3013 RMK A01 T10121082  RH  059%=      5-min Rain = 0
KAD1 171122Z 07006KT M01/M08 A3013 RMK A01 T10121082  RH  059%=      5-min Rain = 0
KAD1 171123Z 06006KT M01/M08 A3013 RMK A01 T10131082  RH  059%=      5-min Rain = 0
KAD1 171124Z 06006KT M01/M08 A3013 RMK A01 T10141083  RH  060%=      5-min Rain = 0
KAD1 171125Z 07005KT M01/M08 A3013 RMK A01 T10141083  RH  060%=      5-min Rain = 0
KAD1 171126Z 06005KT M02/M08 A3013 RMK A01 T10151083  RH  060%=      5-min Rain = 0
KAD1 171127Z 06006KT M02/M08 A3013 RMK A01 T10161083  RH  060%=      5-min Rain = 0
KAD1 171128Z 06006KT M02/M08 A3013 RMK A01 T10161083  RH  060%=      5-min Rain = 0
KAD1 171129Z 06006KT M02/M08 A3013 RMK A01 T10161083  RH  061%=      5-min Rain = 0
KAD1 171130Z 05006KT M02/M08 A3013 RMK A01 T10181084  RH  061%=      5-min Rain = 0
KAD1 171131Z 06005KT M02/M08 A3013 RMK A01 T10181084  RH  061%=      5-min Rain = 0
KAD1 171132Z 05005KT M02/M08 A3013 RMK A01 T10181084  RH  061%=      5-min Rain = 0
KAD1 171133Z 05005KT M02/M08 A3013 RMK A01 T10191084  RH  061%=      5-min Rain = 0
KAD1 171134Z 06005KT M02/M08 A3013 RMK A01 T10191084  RH  061%=      5-min Rain = 0
KAD1 171135Z 06005KT M02/M08 A3013 RMK A01 T10191084  RH  061%=      5-min Rain = 0
KAD1 171136Z 06005KT M02/M08 A3013 RMK A01 T10191083  RH  061%=      5-min Rain = 0
KAD1 171137Z 06006KT M02/M08 A3013 RMK A01 T10191083  RH  061%=      5-min Rain = 0
KAD1 171138Z 06006KT M02/M08 A3013 RMK A01 T10181083  RH  061%=      5-min Rain = 0
KAD1 171139Z 06005KT M02/M08 A3013 RMK A01 T10181084  RH  061%=      5-min Rain = 0
KAD1 171140Z 06005KT M02/M08 A3013 RMK A01 T10181084  RH  061%=      5-min Rain = 0
KAD1 171141Z 05006KT M02/M08 A3013 RMK A01 T10191084  RH  061%=      5-min Rain = 0
KAD1 171142Z 05006KT M02/M08 A3013 RMK A01 T10181084  RH  061%=      5-min Rain = 0
KAD1 171143Z 06007KT M02/M08 A3013 RMK A01 T10181084  RH  061%=      5-min Rain = 0
KAD1 171144Z 06006KT M02/M08 A3013 RMK A01 T10181084  RH  061%=      5-min Rain = 0
KAD1 171145Z 05006KT M02/M09 A3013 RMK A01 T10191086  RH  060%=      5-min Rain = 0
KAD1 171146Z 05006KT M02/M09 A3013 RMK A01 T10201086  RH  061%=      5-min Rain = 0
KAD1 171147Z 06006KT M02/M09 A3013 RMK A01 T10201085  RH  061%=      5-min Rain = 0
KAD1 171148Z 06006KT M02/M08 A3013 RMK A01 T10181084  RH  061%=      5-min Rain = 0
KAD1 171149Z 06007KT M02/M08 A3013 RMK A01 T10161083  RH  060%=      5-min Rain = 0
KAD1 171150Z 06006KT M02/M08 A3013 RMK A01 T10151084  RH  059%=      5-min Rain = 0
KAD1 171151Z 06006KT M02/M09 A3013 RMK A01 T10191089  RH  059%=      5-min Rain = 0
KAD1 171152Z 06006KT M02/M09 A3013 RMK A01 T10221089  RH  060%=      5-min Rain = 0
KAD1 171153Z 06006KT M02/M09 A3014 RMK A01 T10221087  RH  061%=      5-min Rain = 0
KAD1 171154Z 06006KT M02/M09 A3013 RMK A01 T10231087  RH  061%=      5-min Rain = 0
KAD1 171155Z 06007KT M02/M09 A3013 RMK A01 T10231086  RH  062%=      5-min Rain = 0
KAD1 171156Z 07007KT M02/M09 A3013 RMK A01 T10231086  RH  062%=      5-min Rain = 0
KAD1 171157Z 07007KT M02/M09 A3013 RMK A01 T10231086  RH  062%=      5-min Rain = 0
KAD1 171158Z 07007KT M02/M09 A3013 RMK A01 T10221085  RH  062%=      5-min Rain = 0
KAD1 171159Z 07008KT M02/M09 A3013 RMK A01 T10221085  RH  062%=      5-min Rain = 0
KAD1 171200Z 07008KT M02/M09 A3013 RMK A01 T10221085  RH  062%=      5-min Rain = 0
KAD1 171201Z 07008KT M02/M08 A3013 RMK A01 T10221084  RH  062%=      5-min Rain = 0
KAD1 171202Z 06008KT M02/M09 A3013 RMK A01 T10241085  RH  063%=      5-min Rain = 0
KAD1 171203Z 06008KT M03/M09 A3013 RMK A01 T10251085  RH  064%=      5-min Rain = 0
KAD1 171204Z 06008KT M03/M09 A3013 RMK A01 T10261085  RH  064%=      5-min Rain = 0
KAD1 171205Z 06008KT M03/M09 A3013 RMK A01 T10271085  RH  064%=      5-min Rain = 0
KAD1 171206Z 06007KT M03/M09 A3014 RMK A01 T10271085  RH  065%=      5-min Rain = 0
KAD1 171207Z 06007KT M03/M09 A3014 RMK A01 T10281085  RH  065%=      5-min Rain = 0
KAD1 171208Z 06007KT M03/M09 A3014 RMK A01 T10291085  RH  065%=      5-min Rain = 0
KAD1 171209Z 05007KT M03/M09 A3014 RMK A01 T10291085  RH  065%=      5-min Rain = 0
KAD1 171210Z 06007KT M03/M09 A3014 RMK A01 T10281085  RH  065%=      5-min Rain = 0
KAD1 171211Z 06007KT M03/M08 A3014 RMK A01 T10271084  RH  065%=      5-min Rain = 0
KAD1 171212Z 06007KT M03/M08 A3014 RMK A01 T10251084  RH  064%=      5-min Rain = 0
KAD1 171213Z 06007KT M03/M09 A3014 RMK A01 T10251085  RH  064%=      5-min Rain = 0
KAD1 171214Z 06007KT M03/M09 A3014 RMK A01 T10251085  RH  064%=      5-min Rain = 0
KAD1 171215Z 06007KT M03/M09 A3014 RMK A01 T10281087  RH  064%=      5-min Rain = 0
KAD1 171216Z 06007KT M03/M09 A3014 RMK A01 T10281087  RH  064%=      5-min Rain = 0
KAD1 171217Z 05007KT M03/M09 A3014 RMK A01 T10261085  RH  064%=      5-min Rain = 0
KAD1 171218Z 06007KT M02/M08 A3014 RMK A01 T10241084  RH  063%=      5-min Rain = 0
KAD1 171219Z 05007KT M02/M08 A3014 RMK A01 T10221084  RH  063%=      5-min Rain = 0
KAD1 171220Z 05007KT M02/M08 A3014 RMK A01 T10201083  RH  062%=      5-min Rain = 0
KAD1 171221Z 06007KT M02/M08 A3014 RMK A01 T10191084  RH  062%=      5-min Rain = 0
KAD1 171222Z 05007KT M02/M09 A3014 RMK A01 T10201085  RH  061%=      5-min Rain = 0
KAD1 171223Z 05007KT M02/M09 A3014 RMK A01 T10221086  RH  061%=      5-min Rain = 0
KAD1 171224Z 05006KT M02/M09 A3014 RMK A01 T10231087  RH  062%=      5-min Rain = 0
KAD1 171225Z 05006KT M03/M09 A3014 RMK A01 T10261089  RH  062%=      5-min Rain = 0
KAD1 171226Z 05006KT M03/M09 A3014 RMK A01 T10271088  RH  063%=      5-min Rain = 0
KAD1 171227Z 05006KT M03/M09 A3014 RMK A01 T10271087  RH  063%=      5-min Rain = 0
KAD1 171228Z 05007KT M03/M09 A3014 RMK A01 T10261087  RH  063%=      5-min Rain = 0
KAD1 171229Z 05007KT M03/M09 A3014 RMK A01 T10261087  RH  063%=      5-min Rain = 0
KAD1 171230Z 04007KT M03/M09 A3014 RMK A01 T10261087  RH  063%=      5-min Rain = 0
KAD1 171231Z 05006KT M02/M09 A3014 RMK A01 T10241086  RH  063%=      5-min Rain = 0
KAD1 171232Z 05006KT M02/M09 A3014 RMK A01 T10241087  RH  062%=      5-min Rain = 0
KAD1 171233Z 05007KT M02/M09 A3014 RMK A01 T10241086  RH  063%=      5-min Rain = 0
KAD1 171234Z 04007KT M02/M09 A3014 RMK A01 T10231085  RH  062%=      5-min Rain = 0
KAD1 171235Z 04007KT M02/M09 A3015 RMK A01 T10231086  RH  062%=      5-min Rain = 0
KAD1 171236Z 04006KT M03/M09 A3015 RMK A01 T10251087  RH  062%=      5-min Rain = 0
KAD1 171237Z 04007KT M03/M09 A3015 RMK A01 T10271088  RH  063%=      5-min Rain = 0
KAD1 171238Z 04007KT M03/M09 A3015 RMK A01 T10281087  RH  064%=      5-min Rain = 0
KAD1 171239Z 04006KT M03/M09 A3015 RMK A01 T10291087  RH  065%=      5-min Rain = 0
KAD1 171240Z 05007KT M03/M09 A3014 RMK A01 T10311087  RH  065%=      5-min Rain = 0
KAD1 171241Z 04007KT M03/M09 A3014 RMK A01 T10301086  RH  066%=      5-min Rain = 0
KAD1 171242Z 04007KT M03/M09 A3014 RMK A01 T10301085  RH  066%=      5-min Rain = 0
KAD1 171243Z 04007KT M03/M08 A3014 RMK A01 T10281084  RH  065%=      5-min Rain = 0
KAD1 171244Z 04007KT M03/M09 A3014 RMK A01 T10281085  RH  065%=      5-min Rain = 0
KAD1 171245Z 05006KT M03/M09 A3014 RMK A01 T10271085  RH  064%=      5-min Rain = 0
KAD1 171246Z 05007KT M03/M09 A3014 RMK A01 T10271085  RH  064%=      5-min Rain = 0
KAD1 171247Z 04007KT M03/M09 A3014 RMK A01 T10281085  RH  064%=      5-min Rain = 0
KAD1 171248Z 05007KT M03/M09 A3014 RMK A01 T10281085  RH  065%=      5-min Rain = 0
KAD1 171249Z 05007KT M03/M09 A3014 RMK A01 T10281085  RH  065%=      5-min Rain = 0
KAD1 171250Z 05007KT M03/M09 A3014 RMK A01 T10281085  RH  064%=      5-min Rain = 0
KAD1 171251Z 05007KT M03/M09 A3014 RMK A01 T10281085  RH  064%=      5-min Rain = 0
KAD1 171252Z 05006KT M03/M09 A3014 RMK A01 T10281086  RH  064%=      5-min Rain = 0
KAD1 171253Z 05007KT M03/M09 A3014 RMK A01 T10281086  RH  064%=      5-min Rain = 0
KAD1 171254Z 05006KT M03/M09 A3014 RMK A01 T10281086  RH  065%=      5-min Rain = 0
KAD1 171255Z 05006KT M03/M09 A3014 RMK A01 T10281086  RH  065%=      5-min Rain = 0
KAD1 171256Z 05006KT M03/M09 A3015 RMK A01 T10281086  RH  065%=      5-min Rain = 0
KAD1 171257Z 04007KT M03/M09 A3015 RMK A01 T10281085  RH  065%=      5-min Rain = 0
KAD1 171258Z 04007KT M03/M09 A3015 RMK A01 T10271085  RH  064%=      5-min Rain = 0
KAD1 171259Z 04006KT M03/M09 A3015 RMK A01 T10261085  RH  064%=      5-min Rain = 0
KAD1 171300Z 04006KT M03/M09 A3015 RMK A01 T10261085  RH  064%=      5-min Rain = 0
KAD1 171301Z 04006KT M03/M09 A3015 RMK A01 T10261085  RH  064%=      5-min Rain = 0
KAD1 171302Z 04006KT M03/M09 A3015 RMK A01 T10261085  RH  064%=      5-min Rain = 0
KAD1 171303Z 05006KT M03/M09 A3015 RMK A01 T10271085  RH  064%=      5-min Rain = 0
KAD1 171304Z 04007KT M03/M09 A3015 RMK A01 T10271086  RH  064%=      5-min Rain = 0
KAD1 171305Z 04007KT M03/M09 A3015 RMK A01 T10281085  RH  064%=      5-min Rain = 0
KAD1 171306Z 05006KT M03/M09 A3015 RMK A01 T10291087  RH  065%=      5-min Rain = 0
KAD1 171307Z 05007KT M03/M09 A3015 RMK A01 T10301087  RH  065%=      5-min Rain = 0
KAD1 171308Z 04006KT M03/M09 A3015 RMK A01 T10311086  RH  066%=      5-min Rain = 0
KAD1 171309Z 05006KT M03/M09 A3015 RMK A01 T10311086  RH  066%=      5-min Rain = 0
KAD1 171310Z 05006KT M03/M09 A3015 RMK A01 T10321087  RH  066%=      5-min Rain = 0
KAD1 171311Z 04006KT M03/M09 A3015 RMK A01 T10331086  RH  066%=      5-min Rain = 0
KAD1 171312Z 04006KT M03/M09 A3015 RMK A01 T10321086  RH  066%=      5-min Rain = 0
KAD1 171313Z 04006KT M03/M09 A3015 RMK A01 T10321086  RH  066%=      5-min Rain = 0
KAD1 171314Z 04006KT M03/M09 A3015 RMK A01 T10331088  RH  066%=      5-min Rain = 0
KAD1 171315Z 04006KT M03/M09 A3015 RMK A01 T10341088  RH  066%=      5-min Rain = 0
KAD1 171316Z 05006KT M03/M09 A3015 RMK A01 T10341088  RH  066%=      5-min Rain = 0
KAD1 171317Z 05006KT M03/M09 A3016 RMK A01 T10341087  RH  067%=      5-min Rain = 0
KAD1 171318Z 04006KT M03/M09 A3016 RMK A01 T10331086  RH  067%=      5-min Rain = 0
KAD1 171319Z 04006KT M03/M09 A3016 RMK A01 T10321085  RH  067%=      5-min Rain = 0
KAD1 171320Z 04007KT M03/M09 A3016 RMK A01 T10311085  RH  066%=      5-min Rain = 0
KAD1 171321Z 04007KT M03/M09 A3016 RMK A01 T10301085  RH  066%=      5-min Rain = 0
KAD1 171322Z 04007KT M03/M08 A3016 RMK A01 T10291084  RH  066%=      5-min Rain = 0
KAD1 171323Z 04007KT M03/M08 A3016 RMK A01 T10291084  RH  066%=      5-min Rain = 0
KAD1 171324Z 04006KT M03/M08 A3016 RMK A01 T10281084  RH  065%=      5-min Rain = 0
KAD1 171325Z 04006KT M03/M08 A3016 RMK A01 T10281084  RH  065%=      5-min Rain = 0
KAD1 171326Z 04006KT M03/M09 A3016 RMK A01 T10281085  RH  065%=      5-min Rain = 0
KAD1 171327Z 04005KT M03/M09 A3017 RMK A01 T10281085  RH  065%=      5-min Rain = 0
KAD1 171328Z 04006KT M03/M09 A3016 RMK A01 T10291085  RH  065%=      5-min Rain = 0
KAD1 171329Z 05006KT M03/M09 A3016 RMK A01 T10291085  RH  065%=      5-min Rain = 0
KAD1 171330Z 05006KT M03/M08 A3016 RMK A01 T10281084  RH  065%=      5-min Rain = 0
KAD1 171331Z 05006KT M03/M08 A3016 RMK A01 T10271084  RH  065%=      5-min Rain = 0
KAD1 171332Z 05006KT M03/M09 A3016 RMK A01 T10271085  RH  065%=      5-min Rain = 0
KAD1 171333Z 05006KT M03/M09 A3016 RMK A01 T10281085  RH  064%=      5-min Rain = 0
KAD1 171334Z 05006KT M03/M09 A3016 RMK A01 T10281086  RH  065%=      5-min Rain = 0
KAD1 171335Z 05006KT M03/M09 A3016 RMK A01 T10291086  RH  065%=      5-min Rain = 0
KAD1 171336Z 05006KT M03/M09 A3016 RMK A01 T10291086  RH  065%=      5-min Rain = 0
KAD1 171337Z 05006KT M03/M09 A3016 RMK A01 T10301087  RH  065%=      5-min Rain = 0
KAD1 171338Z 05006KT M03/M09 A3016 RMK A01 T10301086  RH  065%=      5-min Rain = 0
KAD1 171339Z 05006KT M03/M09 A3016 RMK A01 T10311086  RH  066%=      5-min Rain = 0
KAD1 171340Z 05006KT M03/M09 A3016 RMK A01 T10311086  RH  066%=      5-min Rain = 0
KAD1 171341Z 04006KT M03/M09 A3016 RMK A01 T10301085  RH  066%=      5-min Rain = 0
KAD1 171342Z 04006KT M03/M09 A3016 RMK A01 T10301085  RH  066%=      5-min Rain = 0
KAD1 171343Z 05006KT M03/M09 A3016 RMK A01 T10301085  RH  066%=      5-min Rain = 0
KAD1 171344Z 05006KT M03/M09 A3017 RMK A01 T10301085  RH  065%=      5-min Rain = 0
KAD1 171345Z 05006KT M03/M09 A3017 RMK A01 T10291085  RH  065%=      5-min Rain = 0
KAD1 171346Z 04007KT M03/M09 A3017 RMK A01 T10291085  RH  065%=      5-min Rain = 0
KAD1 171347Z 05007KT M03/M09 A3017 RMK A01 T10291085  RH  065%=      5-min Rain = 0
KAD1 171348Z 05006KT M03/M09 A3017 RMK A01 T10291085  RH  065%=      5-min Rain = 0
KAD1 171349Z 05006KT M03/M09 A3017 RMK A01 T10291085  RH  066%=      5-min Rain = 0
KAD1 171350Z 05006KT M03/M09 A3017 RMK A01 T10301085  RH  066%=      5-min Rain = 0
KAD1 171351Z 05007KT M03/M08 A3017 RMK A01 T10291084  RH  066%=      5-min Rain = 0
KAD1 171352Z 05006KT M03/M08 A3017 RMK A01 T10281083  RH  066%=      5-min Rain = 0
KAD1 171353Z 05006KT M03/M08 A3016 RMK A01 T10261082  RH  066%=      5-min Rain = 0
KAD1 171354Z 05006KT M03/M08 A3016 RMK A01 T10261082  RH  065%=      5-min Rain = 0
KAD1 171355Z 05006KT M03/M08 A3016 RMK A01 T10261083  RH  065%=      5-min Rain = 0
KAD1 171356Z 05006KT M03/M08 A3016 RMK A01 T10261083  RH  065%=      5-min Rain = 0
KAD1 171357Z 06006KT M03/M08 A3016 RMK A01 T10261084  RH  065%=      5-min Rain = 0
KAD1 171358Z 05006KT M03/M08 A3016 RMK A01 T10271083  RH  065%=      5-min Rain = 0
KAD1 171359Z 05006KT M03/M08 A3016 RMK A01 T10271083  RH  065%=      5-min Rain = 0
KAD1 171400Z 05006KT M03/M08 A3016 RMK A01 T10271083  RH  065%=      5-min Rain = 0
KAD1 171401Z 05006KT M03/M08 A3016 RMK A01 T10271083  RH  065%=      5-min Rain = 0
KAD1 171402Z 05006KT M03/M08 A3016 RMK A01 T10271083  RH  065%=      5-min Rain = 0
KAD1 171403Z 05006KT M03/M08 A3016 RMK A01 T10271082  RH  066%=      5-min Rain = 0
KAD1 171404Z 05006KT M03/M08 A3016 RMK A01 T10271082  RH  066%=      5-min Rain = 0
KAD1 171405Z 05005KT M03/M08 A3016 RMK A01 T10271082  RH  066%=      5-min Rain = 0
KAD1 171406Z 05006KT M03/M08 A3016 RMK A01 T10281083  RH  066%=      5-min Rain = 0
KAD1 171407Z 05005KT M03/M08 A3016 RMK A01 T10291083  RH  066%=      5-min Rain = 0
KAD1 171408Z 05006KT M03/M08 A3016 RMK A01 T10291083  RH  066%=      5-min Rain = 0
KAD1 171409Z 05005KT M03/M08 A3016 RMK A01 T10291083  RH  066%=      5-min Rain = 0
KAD1 171410Z 05005KT M03/M08 A3017 RMK A01 T10301084  RH  066%=      5-min Rain = 0
KAD1 171411Z 05006KT M03/M08 A3017 RMK A01 T10311084  RH  067%=      5-min Rain = 0
KAD1 171412Z 05006KT M03/M08 A3017 RMK A01 T10301082  RH  067%=      5-min Rain = 0
KAD1 171413Z 05006KT M03/M08 A3017 RMK A01 T10291082  RH  067%=      5-min Rain = 0
KAD1 171414Z 05006KT M03/M08 A3017 RMK A01 T10281082  RH  067%=      5-min Rain = 0
KAD1 171415Z 05006KT M03/M08 A3017 RMK A01 T10281082  RH  066%=      5-min Rain = 0
KAD1 171416Z 05006KT M03/M08 A3017 RMK A01 T10291082  RH  066%=      5-min Rain = 0
KAD1 171417Z 05005KT M03/M08 A3017 RMK A01 T10291082  RH  067%=      5-min Rain = 0
KAD1 171418Z 05005KT M03/M08 A3017 RMK A01 T10291082  RH  067%=      5-min Rain = 0
KAD1 171419Z 05005KT M03/M08 A3017 RMK A01 T10291082  RH  067%=      5-min Rain = 0
KAD1 171420Z 04005KT M03/M08 A3017 RMK A01 T10281081  RH  067%=      5-min Rain = 0
KAD1 171421Z 04005KT M03/M08 A3017 RMK A01 T10271081  RH  067%=      5-min Rain = 0
KAD1 171422Z 04005KT M03/M08 A3017 RMK A01 T10261080  RH  066%=      5-min Rain = 0
KAD1 171423Z 04005KT M03/M08 A3017 RMK A01 T10251079  RH  066%=      5-min Rain = 0
KAD1 171424Z 04005KT M02/M08 A3017 RMK A01 T10231079  RH  066%=      5-min Rain = 0
KAD1 171425Z 04005KT M02/M08 A3017 RMK A01 T10231080  RH  065%=      5-min Rain = 0
KAD1 171426Z 03005KT M02/M08 A3017 RMK A01 T10231080  RH  065%=      5-min Rain = 0
KAD1 171427Z 04005KT M02/M08 A3017 RMK A01 T10231079  RH  065%=      5-min Rain = 0
KAD1 171428Z 04005KT M02/M08 A3017 RMK A01 T10221079  RH  065%=      5-min Rain = 0
KAD1 171429Z 03005KT M02/M08 A3017 RMK A01 T10221079  RH  065%=      5-min Rain = 0
KAD1 171430Z 03005KT M02/M08 A3018 RMK A01 T10221079  RH  065%=      5-min Rain = 0
KAD1 171431Z 04005KT M02/M08 A3018 RMK A01 T10211078  RH  065%=      5-min Rain = 0
KAD1 171432Z 03005KT M02/M08 A3018 RMK A01 T10201078  RH  065%=      5-min Rain = 0
KAD1 171433Z 03006KT M02/M08 A3018 RMK A01 T10191078  RH  064%=      5-min Rain = 0
KAD1 171434Z 03006KT M02/M08 A3018 RMK A01 T10191078  RH  064%=      5-min Rain = 0
KAD1 171435Z 03006KT M02/M08 A3018 RMK A01 T10191078  RH  064%=      5-min Rain = 0
KAD1 171436Z 03006KT M02/M08 A3018 RMK A01 T10201078  RH  065%=      5-min Rain = 0
KAD1 171437Z 03006KT M02/M08 A3019 RMK A01 T10221077  RH  066%=      5-min Rain = 0
KAD1 171438Z 03006KT M02/M08 A3019 RMK A01 T10221076  RH  067%=      5-min Rain = 0
KAD1 171439Z 03006KT M02/M07 A3018 RMK A01 T10221074  RH  067%=      5-min Rain = 0
KAD1 171440Z 03006KT M02/M07 A3018 RMK A01 T10211072  RH  068%=      5-min Rain = 0
KAD1 171441Z 04007KT M02/M07 A3018 RMK A01 T10201071  RH  068%=      5-min Rain = 0
KAD1 171442Z 04007KT M02/M07 A3018 RMK A01 T10181070  RH  068%=      5-min Rain = 0
KAD1 171443Z 04006KT M02/M07 A3018 RMK A01 T10171070  RH  067%=      5-min Rain = 0
KAD1 171444Z 04006KT M02/M07 A3018 RMK A01 T10171070  RH  067%=      5-min Rain = 0
KAD1 171445Z 04006KT M02/M07 A3018 RMK A01 T10161070  RH  067%=      5-min Rain = 0
KAD1 171446Z 04006KT M02/M07 A3018 RMK A01 T10151070  RH  066%=      5-min Rain = 0
KAD1 171447Z 04006KT M02/M07 A3018 RMK A01 T10151069  RH  067%=      5-min Rain = 0
KAD1 171448Z 04006KT M02/M07 A3018 RMK A01 T10151069  RH  067%=      5-min Rain = 0
KAD1 171449Z 04006KT M02/M07 A3018 RMK A01 T10151068  RH  067%=      5-min Rain = 0
KAD1 171450Z 04006KT M02/M07 A3018 RMK A01 T10161068  RH  067%=      5-min Rain = 0
KAD1 171451Z 04006KT M02/M07 A3018 RMK A01 T10151068  RH  067%=      5-min Rain = 0
KAD1 171452Z 04006KT M01/M07 A3018 RMK A01 T10141066  RH  068%=      5-min Rain = 0
KAD1 171453Z 04006KT M01/M07 A3018 RMK A01 T10141065  RH  068%=      5-min Rain = 0
KAD1 171454Z 04006KT M01/M06 A3018 RMK A01 T10141064  RH  069%=      5-min Rain = 0
KAD1 171455Z 04006KT M01/M06 A3018 RMK A01 T10131063  RH  069%=      5-min Rain = 0
KAD1 171456Z 04006KT M01/M06 A3018 RMK A01 T10121061  RH  069%=      5-min Rain = 0
KAD1 171457Z 04006KT M01/M06 A3018 RMK A01 T10111061  RH  069%=      5-min Rain = 0
KAD1 171458Z 04005KT M01/M06 A3018 RMK A01 T10101061  RH  069%=      5-min Rain = 0
KAD1 171459Z 04006KT M01/M06 A3018 RMK A01 T10101060  RH  069%=      5-min Rain = 0
KAD1 171500Z 04005KT M01/M06 A3018 RMK A01 T10101059  RH  069%=      5-min Rain = 0
KAD1 171501Z 04006KT M01/M06 A3018 RMK A01 T10101060  RH  069%=      5-min Rain = 0
KAD1 171502Z 04006KT M01/M06 A3018 RMK A01 T10091061  RH  068%=      5-min Rain = 0
KAD1 171503Z 04006KT M01/M06 A3018 RMK A01 T10081061  RH  067%=      5-min Rain = 0
KAD1 171504Z 04005KT M01/M06 A3018 RMK A01 T10071061  RH  067%=      5-min Rain = 0
KAD1 171505Z 04005KT M01/M06 A3018 RMK A01 T10071058  RH  068%=      5-min Rain = 0
KAD1 171506Z 04005KT M01/M06 A3018 RMK A01 T10071059  RH  068%=      5-min Rain = 0
KAD1 171507Z 04005KT M01/M06 A3018 RMK A01 T10061058  RH  068%=      5-min Rain = 0
KAD1 171508Z 04005KT M01/M06 A3018 RMK A01 T10061058  RH  068%=      5-min Rain = 0
KAD1 171509Z 04005KT M01/M06 A3018 RMK A01 T10051058  RH  067%=      5-min Rain = 0
KAD1 171510Z 04005KT M01/M06 A3018 RMK A01 T10051056  RH  068%=      5-min Rain = 0
KAD1 171511Z 04005KT M01/M06 A3018 RMK A01 T10051056  RH  068%=      5-min Rain = 0
KAD1 171512Z 04005KT M00/M06 A3018 RMK A01 T10041058  RH  067%=      5-min Rain = 0
KAD1 171513Z 04005KT M00/M06 A3018 RMK A01 T10041055  RH  068%=      5-min Rain = 0
KAD1 171514Z 03005KT M00/M06 A3018 RMK A01 T10031055  RH  068%=      5-min Rain = 0
KAD1 171515Z 03005KT M00/M06 A3018 RMK A01 T10021057  RH  067%=      5-min Rain = 0
KAD1 171516Z 03005KT M00/M05 A3018 RMK A01 T10021054  RH  068%=      5-min Rain = 0
KAD1 171517Z 03006KT M00/M06 A3018 RMK A01 T10021055  RH  067%=      5-min Rain = 0
KAD1 171518Z 03006KT M00/M06 A3019 RMK A01 T10021055  RH  067%=      5-min Rain = 0
KAD1 171519Z 03005KT M00/M06 A3019 RMK A01 T10011055  RH  067%=      5-min Rain = 0
KAD1 171520Z 03005KT M00/M06 A3019 RMK A01 T10011056  RH  066%=      5-min Rain = 0
KAD1 171521Z 02005KT 00/06 A3019 RMK A01 T00000-56  RH  066%=      5-min Rain = 0
KAD1 171522Z 02005KT 00/M06 A3019 RMK A01 T00011057  RH  065%=      5-min Rain = 0
KAD1 171523Z 02005KT 00/M06 A3019 RMK A01 T00011057  RH  065%=      5-min Rain = 0
KAD1 171524Z 02005KT 00/M06 A3019 RMK A01 T00011056  RH  066%=      5-min Rain = 0
KAD1 171525Z 02005KT 00/M05 A3019 RMK A01 T00011053  RH  067%=      5-min Rain = 0
KAD1 171526Z 02005KT 00/M05 A3019 RMK A01 T00021054  RH  066%=      5-min Rain = 0
KAD1 171527Z 02004KT 00/M06 A3019 RMK A01 T00031055  RH  065%=      5-min Rain = 0
KAD1 171528Z 03005KT 00/M05 A3019 RMK A01 T00041050  RH  067%=      5-min Rain = 0
KAD1 171529Z 03005KT 00/M06 A3019 RMK A01 T00041055  RH  065%=      5-min Rain = 0
KAD1 171530Z 03005KT 01/M06 A3019 RMK A01 T00051055  RH  064%=      5-min Rain = 0
KAD1 171531Z 03005KT 01/M06 A3019 RMK A01 T00051056  RH  064%=      5-min Rain = 0
KAD1 171532Z 03004KT 01/M05 A3019 RMK A01 T00051054  RH  065%=      5-min Rain = 0
KAD1 171533Z 02005KT 01/M05 A3019 RMK A01 T00051053  RH  065%=      5-min Rain = 0
KAD1 171534Z 03005KT 01/M06 A3019 RMK A01 T00061055  RH  064%=      5-min Rain = 0
KAD1 171535Z 02006KT 01/M05 A3019 RMK A01 T00071053  RH  064%=      5-min Rain = 0
KAD1 171536Z 02007KT 01/M05 A3019 RMK A01 T00071054  RH  064%=      5-min Rain = 0
KAD1 171537Z 03006KT 01/M06 A3019 RMK A01 T00071058  RH  062%=      5-min Rain = 0
KAD1 171538Z 03006KT 01/M06 A3019 RMK A01 T00071057  RH  062%=      5-min Rain = 0
KAD1 171539Z 02007KT 01/M06 A302 RMK A01 T00081057  RH  062%=      5-min Rain = 0
KAD1 171540Z 02007KT 01/M06 A302 RMK A01 T00081058  RH  061%=      5-min Rain = 0
KAD1 171541Z 02007KT 01/M06 A302 RMK A01 T00081059  RH  061%=      5-min Rain = 0
KAD1 171542Z 03006KT 01/M05 A302 RMK A01 T00091053  RH  063%=      5-min Rain = 0
KAD1 171543Z 03006KT 01/M06 A302 RMK A01 T00091056  RH  062%=      5-min Rain = 0
KAD1 171544Z 03007KT 01/M06 A302 RMK A01 T00091059  RH  060%=      5-min Rain = 0
KAD1 171545Z 03006KT 01/M06 A302 RMK A01 T00091056  RH  062%=      5-min Rain = 0
KAD1 171546Z 02006KT 01/M06 A302 RMK A01 T00101058  RH  061%=      5-min Rain = 0
KAD1 171547Z 02006KT 01/M06 A302 RMK A01 T00101056  RH  061%=      5-min Rain = 0
KAD1 171548Z 03005KT 01/M06 A302 RMK A01 T00101056  RH  061%=      5-min Rain = 0
KAD1 171549Z 03006KT 01/M06 A302 RMK A01 T00111057  RH  060%=      5-min Rain = 0
KAD1 171550Z 02006KT 01/M06 A302 RMK A01 T00121058  RH  060%=      5-min Rain = 0
KAD1 171551Z 03006KT 01/M06 A302 RMK A01 T00121058  RH  060%=      5-min Rain = 0
KAD1 171552Z 02007KT 01/M06 A302 RMK A01 T00121057  RH  060%=      5-min Rain = 0
KAD1 171553Z 02007KT 01/M06 A302 RMK A01 T00121059  RH  059%=      5-min Rain = 0
KAD1 171554Z 02006KT 01/M06 A302 RMK A01 T00121060  RH  059%=      5-min Rain = 0
KAD1 171555Z 03006KT 01/M06 A302 RMK A01 T00121057  RH  060%=      5-min Rain = 0
KAD1 171556Z 03006KT 01/M06 A302 RMK A01 T00131057  RH  060%=      5-min Rain = 0
KAD1 171557Z 03007KT 01/M06 A302 RMK A01 T00131057  RH  060%=      5-min Rain = 0
KAD1 171558Z 03006KT 01/M06 A302 RMK A01 T00131058  RH  059%=      5-min Rain = 0
KAD1 171559Z 03007KT 01/M06 A302 RMK A01 T00131056  RH  060%=      5-min Rain = 0
KAD1 171600Z 03007KT 01/M06 A302 RMK A01 T00141055  RH  060%=      5-min Rain = 0
KAD1 171601Z 03007KT 01/M06 A302 RMK A01 T00141057  RH  059%=      5-min Rain = 0
KAD1 171602Z 03007KT 01/M06 A302 RMK A01 T00141058  RH  059%=      5-min Rain = 0
KAD1 171603Z 03006KT 01/M06 A302 RMK A01 T00141058  RH  059%=      5-min Rain = 0
KAD1 171604Z 04008KT 01/M06 A302 RMK A01 T00141055  RH  060%=      5-min Rain = 0
KAD1 171605Z 04009KT 02/M06 A302 RMK A01 T00151060  RH  057%=      5-min Rain = 0
KAD1 171606Z 05008KT 02/M06 A3019 RMK A01 T00151060  RH  058%=      5-min Rain = 0
KAD1 171607Z 05006KT 02/M06 A3019 RMK A01 T00151060  RH  057%=      5-min Rain = 0
KAD1 171608Z 04006KT 02/M06 A3019 RMK A01 T00151058  RH  058%=      5-min Rain = 0
KAD1 171609Z 04006KT 02/M05 A3019 RMK A01 T00171054  RH  059%=      5-min Rain = 0
KAD1 171610Z 05007KT 02/M06 A302 RMK A01 T00181056  RH  058%=      5-min Rain = 0
KAD1 171611Z 04006KT 02/M06 A302 RMK A01 T00181056  RH  058%=      5-min Rain = 0
KAD1 171612Z 04008KT 02/M06 A302 RMK A01 T00181058  RH  057%=      5-min Rain = 0
KAD1 171613Z 04008KT 02/M06 A302 RMK A01 T00181057  RH  057%=      5-min Rain = 0
KAD1 171614Z 04007KT 02/M06 A302 RMK A01 T00181059  RH  057%=      5-min Rain = 0
KAD1 171615Z 04007KT 02/M06 A302 RMK A01 T00181059  RH  057%=      5-min Rain = 0
KAD1 171616Z 05007KT 02/M06 A302 RMK A01 T00181058  RH  057%=      5-min Rain = 0
KAD1 171617Z 04007KT 02/M06 A302 RMK A01 T00181058  RH  057%=      5-min Rain = 0
KAD1 171618Z 05007KT 02/M06 A302 RMK A01 T00191056  RH  057%=      5-min Rain = 0
KAD1 171619Z 05008KT 02/M06 A302 RMK A01 T00201057  RH  057%=      5-min Rain = 0
KAD1 171620Z 05006KT 02/M05 A302 RMK A01 T00211054  RH  057%=      5-min Rain = 0
KAD1 171621Z 04007KT 02/M05 A302 RMK A01 T00231053  RH  057%=      5-min Rain = 0
KAD1 171622Z 04007KT 02/M06 A302 RMK A01 T00221057  RH  056%=      5-min Rain = 0
KAD1 171623Z 04008KT 02/M06 A302 RMK A01 T00221059  RH  055%=      5-min Rain = 0
KAD1 171624Z 05007KT 02/M06 A302 RMK A01 T00211057  RH  056%=      5-min Rain = 0
KAD1 171625Z 05007KT 02/M06 A302 RMK A01 T00221057  RH  056%=      5-min Rain = 0
KAD1 171626Z 04009KT 02/M06 A3021 RMK A01 T00221058  RH  055%=      5-min Rain = 0
KAD1 171627Z 03008KT 02/M06 A3021 RMK A01 T00211062  RH  054%=      5-min Rain = 0
KAD1 171628Z 04007KT 02/M06 A3021 RMK A01 T00201060  RH  055%=      5-min Rain = 0
KAD1 171629Z 04009KT 02/M06 A3021 RMK A01 T00201059  RH  055%=      5-min Rain = 0
KAD1 171630Z 04009KT 02/M06 A3021 RMK A01 T00211061  RH  055%=      5-min Rain = 0
KAD1 171631Z 05008KT 02/M06 A3021 RMK A01 T00201061  RH  055%=      5-min Rain = 0
KAD1 171632Z 04008KT 02/M06 A3021 RMK A01 T00201061  RH  055%=      5-min Rain = 0
KAD1 171633Z 05007KT 02/M06 A3021 RMK A01 T00201061  RH  055%=      5-min Rain = 0
KAD1 171634Z 05009KT 02/M06 A3021 RMK A01 T00201060  RH  055%=      5-min Rain = 0
KAD1 171635Z 05008KT 02/M06 A3021 RMK A01 T00211059  RH  055%=      5-min Rain = 0
KAD1 171636Z 05008KT 02/M06 A3021 RMK A01 T00221060  RH  055%=      5-min Rain = 0
KAD1 171637Z 06008KT 02/M06 A3021 RMK A01 T00221058  RH  055%=      5-min Rain = 0
KAD1 171638Z 05007KT 02/M06 A3021 RMK A01 T00231057  RH  056%=      5-min Rain = 0
KAD1 171639Z 05007KT 03/M06 A3021 RMK A01 T00251055  RH  056%=      5-min Rain = 0
KAD1 171640Z 06007KT 03/M05 A3021 RMK A01 T00271052  RH  056%=      5-min Rain = 0
KAD1 171641Z 05009KT 03/M06 A3021 RMK A01 T00271057  RH  054%=      5-min Rain = 0
KAD1 171642Z 05007KT 03/M06 A3021 RMK A01 T00261056  RH  054%=      5-min Rain = 0
KAD1 171643Z 05006KT 03/M06 A3021 RMK A01 T00261055  RH  055%=      5-min Rain = 0
KAD1 171644Z 06006KT 03/M05 A3021 RMK A01 T00271054  RH  055%=      5-min Rain = 0
KAD1 171645Z 05009KT 03/M06 A3021 RMK A01 T00281057  RH  053%=      5-min Rain = 0
KAD1 171646Z 05010KT 03/M06 A3021 RMK A01 T00281059  RH  053%=      5-min Rain = 0
KAD1 171647Z 05010KT 03/M06 A3021 RMK A01 T00281060  RH  052%=      5-min Rain = 0
KAD1 171648Z 05010KT 03/M06 A3021 RMK A01 T00271061  RH  052%=      5-min Rain = 0
KAD1 171649Z 05009KT 03/M06 A3021 RMK A01 T00281061  RH  052%=      5-min Rain = 0
KAD1 171650Z 05010KT 03/M06 A3021 RMK A01 T00281061  RH  052%=      5-min Rain = 0
KAD1 171651Z 05010KT 03/M06 A3021 RMK A01 T00281063  RH  051%=      5-min Rain = 0
KAD1 171652Z 05010KT 03/M06 A3021 RMK A01 T00271064  RH  051%=      5-min Rain = 0
KAD1 171653Z 05010KT 03/M06 A3021 RMK A01 T00271064  RH  051%=      5-min Rain = 0
KAD1 171654Z 05009KT 03/M07 A3021 RMK A01 T00281066  RH  050%=      5-min Rain = 0
KAD1 171655Z 05008KT 03/M06 A3021 RMK A01 T00291063  RH  051%=      5-min Rain = 0
KAD1 171656Z 05008KT 03/M06 A3022 RMK A01 T00301061  RH  051%=      5-min Rain = 0
KAD1 171657Z 06009KT 03/M06 A3022 RMK A01 T00311060  RH  051%=      5-min Rain = 0
KAD1 171658Z 06009KT 03/M06 A3021 RMK A01 T00311062  RH  050%=      5-min Rain = 0
KAD1 171659Z 06009KT 03/M06 A3021 RMK A01 T00311063  RH  050%=      5-min Rain = 0
KAD1 171700Z 04007KT 03/M06 A3021 RMK A01 T00311064  RH  050%=      5-min Rain = 0
KAD1 171701Z 06009KT 03/M06 A3021 RMK A01 T00311064  RH  050%=      5-min Rain = 0
KAD1 171702Z 06008KT 03/M06 A3021 RMK A01 T00311064  RH  050%=      5-min Rain = 0
KAD1 171703Z 05008KT 03/M06 A3021 RMK A01 T00311061  RH  051%=      5-min Rain = 0
KAD1 171704Z 06008KT 03/M06 A3021 RMK A01 T00321060  RH  051%=      5-min Rain = 0
KAD1 171705Z 05007KT 03/M06 A3021 RMK A01 T00331063  RH  049%=      5-min Rain = 0
KAD1 171706Z 05008KT 03/M06 A3021 RMK A01 T00321063  RH  049%=      5-min Rain = 0
KAD1 171707Z 06006KT 03/M06 A3021 RMK A01 T00311064  RH  049%=      5-min Rain = 0
KAD1 171708Z 06008KT 03/M06 A3021 RMK A01 T00331061  RH  050%=      5-min Rain = 0
KAD1 171709Z 07008KT 04/M06 A3021 RMK A01 T00351062  RH  049%=      5-min Rain = 0
KAD1 171710Z 05006KT 04/M06 A3021 RMK A01 T00351063  RH  049%=      5-min Rain = 0
KAD1 171711Z 03008KT 04/M06 A3021 RMK A01 T00351063  RH  049%=      5-min Rain = 0
KAD1 171712Z 04008KT 04/M07 A3021 RMK A01 T00361065  RH  048%=      5-min Rain = 0
KAD1 171713Z 05007KT 04/M06 A3021 RMK A01 T00361063  RH  048%=      5-min Rain = 0
KAD1 171714Z 03008KT 04/M06 A3021 RMK A01 T00381061  RH  048%=      5-min Rain = 0
KAD1 171715Z 03008KT 04/M06 A3021 RMK A01 T00371064  RH  047%=      5-min Rain = 0
KAD1 171716Z 03008KT 04/M07 A3021 RMK A01 T00351066  RH  047%=      5-min Rain = 0
KAD1 171717Z 04007KT 03/M07 A3021 RMK A01 T00331066  RH  048%=      5-min Rain = 0
KAD1 171718Z 03006KT 03/M07 A302 RMK A01 T00331065  RH  049%=      5-min Rain = 0
KAD1 171719Z 05006KT 03/M06 A302 RMK A01 T00321064  RH  049%=      5-min Rain = 0
KAD1 171720Z 06006KT 04/M06 A302 RMK A01 T00361059  RH  050%=      5-min Rain = 0
KAD1 171721Z 06006KT 04/M06 A302 RMK A01 T00371062  RH  048%=      5-min Rain = 0
KAD1 171722Z 04005KT 04/M06 A302 RMK A01 T00361064  RH  048%=      5-min Rain = 0
KAD1 171723Z 06006KT 04/M06 A302 RMK A01 T00361063  RH  048%=      5-min Rain = 0
KAD1 171724Z 08007KT 04/M06 A302 RMK A01 T00371062  RH  048%=      5-min Rain = 0
KAD1 171725Z 07006KT 04/M06 A302 RMK A01 T00381064  RH  047%=      5-min Rain = 0
KAD1 171726Z 05007KT 04/M07 A302 RMK A01 T00371066  RH  047%=      5-min Rain = 0
KAD1 171727Z 04007KT 04/M07 A302 RMK A01 T00361065  RH  047%=      5-min Rain = 0
KAD1 171728Z 04007KT 04/M06 A302 RMK A01 T00381064  RH  047%=      5-min Rain = 0
KAD1 171729Z 05006KT 04/M06 A302 RMK A01 T00381064  RH  047%=      5-min Rain = 0
KAD1 171730Z 04005KT 04/M06 A302 RMK A01 T00381064  RH  047%=      5-min Rain = 0
KAD1 171731Z 04006KT 04/M06 A302 RMK A01 T00391063  RH  047%=      5-min Rain = 0
KAD1 171732Z 03005KT 04/M07 A302 RMK A01 T00401065  RH  046%=      5-min Rain = 0
KAD1 171733Z 07004KT 04/M07 A302 RMK A01 T00391067  RH  046%=      5-min Rain = 0
KAD1 171734Z 05005KT 04/M07 A302 RMK A01 T00381066  RH  047%=      5-min Rain = 0
KAD1 171735Z 03004KT 04/M07 A302 RMK A01 T00391065  RH  046%=      5-min Rain = 0
KAD1 171736Z 06004KT 04/M07 A302 RMK A01 T00391065  RH  046%=      5-min Rain = 0
KAD1 171737Z 06006KT 04/M07 A302 RMK A01 T00401066  RH  046%=      5-min Rain = 0
KAD1 171738Z 07006KT 04/M07 A3019 RMK A01 T00401067  RH  046%=      5-min Rain = 0
KAD1 171739Z 08005KT 04/M07 A3019 RMK A01 T00411066  RH  046%=      5-min Rain = 0
KAD1 171740Z 07004KT 04/M07 A3019 RMK A01 T00401068  RH  045%=      5-min Rain = 0
KAD1 171741Z 08003KT 04/M06 A3019 RMK A01 T00411064  RH  046%=      5-min Rain = 0
KAD1 171742Z 03004KT 04/M07 A3019 RMK A01 T00431065  RH  045%=      5-min Rain = 0
KAD1 171743Z 01003KT 04/M07 A3019 RMK A01 T00431068  RH  044%=      5-min Rain = 0
KAD1 171744Z 02003KT 04/M07 A3019 RMK A01 T00421069  RH  044%=      5-min Rain = 0
KAD1 171745Z 06005KT 04/M07 A3019 RMK A01 T00411068  RH  045%=      5-min Rain = 0
KAD1 171746Z 05006KT 04/M07 A3019 RMK A01 T00431067  RH  045%=      5-min Rain = 0
KAD1 171747Z 04005KT 04/M07 A3018 RMK A01 T00421069  RH  044%=      5-min Rain = 0
KAD1 171748Z 04003KT 04/M07 A3018 RMK A01 T00411070  RH  044%=      5-min Rain = 0
KAD1 171749Z 05002KT 04/M07 A3018 RMK A01 T00411069  RH  045%=      5-min Rain = 0
KAD1 171750Z 05005KT 04/M07 A3018 RMK A01 T00421067  RH  045%=      5-min Rain = 0
KAD1 171751Z 05004KT 04/M07 A3018 RMK A01 T00431069  RH  044%=      5-min Rain = 0
KAD1 171752Z 06004KT 04/M07 A3018 RMK A01 T00431068  RH  044%=      5-min Rain = 0
KAD1 171753Z 06003KT 04/M07 A3018 RMK A01 T00431070  RH  043%=      5-min Rain = 0
KAD1 171754Z 08004KT 04/M07 A3018 RMK A01 T00431070  RH  044%=      5-min Rain = 0
KAD1 171755Z 10003KT 04/M07 A3018 RMK A01 T00441068  RH  044%=      5-min Rain = 0
KAD1 171756Z 05003KT 05/M07 A3017 RMK A01 T00451066  RH  044%=      5-min Rain = 0
KAD1 171757Z 06002KT 05/M07 A3017 RMK A01 T00471068  RH  043%=      5-min Rain = 0
KAD1 171758Z 06002KT 05/M07 A3017 RMK A01 T00471066  RH  044%=      5-min Rain = 0
KAD1 171759Z 04002KT 05/M07 A3017 RMK A01 T00481067  RH  043%=      5-min Rain = 0
KAD1 171800Z 06004KT 05/M07 A3017 RMK A01 T00481067  RH  043%=      5-min Rain = 0
KAD1 171801Z 03003KT 05/M07 A3017 RMK A01 T00471069  RH  043%=      5-min Rain = 0
KAD1 171802Z 04002KT 05/M07 A3017 RMK A01 T00461070  RH  043%=      5-min Rain = 0
KAD1 171803Z 06003KT 05/M07 A3017 RMK A01 T00471067  RH  044%=      5-min Rain = 0
KAD1 171804Z 07002KT 05/M07 A3017 RMK A01 T00481068  RH  043%=      5-min Rain = 0
KAD1 171805Z 08002KT 05/M07 A3017 RMK A01 T00481068  RH  043%=      5-min Rain = 0
KAD1 171806Z 01004KT 05/M07 A3017 RMK A01 T00491066  RH  043%=      5-min Rain = 0
KAD1 171807Z 04003KT 05/M07 A3017 RMK A01 T00491070  RH  042%=      5-min Rain = 0
KAD1 171808Z 05003KT 05/M07 A3017 RMK A01 T00481070  RH  042%=      5-min Rain = 0
KAD1 171809Z 04004KT 05/M07 A3017 RMK A01 T00481069  RH  042%=      5-min Rain = 0
KAD1 171810Z 01005KT 05/M07 A3017 RMK A01 T00491067  RH  043%=      5-min Rain = 0
KAD1 171811Z 35003KT 05/M07 A3017 RMK A01 T00471070  RH  042%=      5-min Rain = 0
KAD1 171812Z 01004KT 05/M07 A3017 RMK A01 T00461070  RH  043%=      5-min Rain = 0
KAD1 171813Z 05003KT 05/M07 A3016 RMK A01 T00461070  RH  043%=      5-min Rain = 0
KAD1 171814Z 07003KT 05/M07 A3016 RMK A01 T00481069  RH  042%=      5-min Rain = 0
KAD1 171815Z 08004KT 05/M07 A3016 RMK A01 T00501069  RH  042%=      5-min Rain = 0
KAD1 171816Z 07003KT 05/M07 A3016 RMK A01 T00501071  RH  041%=      5-min Rain = 0
KAD1 171817Z 07004KT 05/M07 A3016 RMK A01 T00491071  RH  041%=      5-min Rain = 0
KAD1 171818Z 09004KT 05/M07 A3016 RMK A01 T00481072  RH  041%=      5-min Rain = 0
KAD1 171819Z 12002KT 05/M07 A3016 RMK A01 T00481073  RH  041%=      5-min Rain = 0
KAD1 171820Z 12002KT 05/M07 A3016 RMK A01 T00491074  RH  041%=      5-min Rain = 0
KAD1 171821Z 11002KT 05/M07 A3016 RMK A01 T00501074  RH  040%=      5-min Rain = 0
KAD1 171822Z 11002KT 05/M07 A3015 RMK A01 T00511072  RH  040%=      5-min Rain = 0
KAD1 171823Z 05003KT 05/M07 A3015 RMK A01 T00541069  RH  041%=      5-min Rain = 0
KAD1 171824Z 05003KT 05/M07 A3015 RMK A01 T00531072  RH  040%=      5-min Rain = 0
KAD1 171825Z 06001KT 05/M08 A3015 RMK A01 T00501076  RH  040%=      5-min Rain = 0
KAD1 171826Z 08000KT 05/M07 A3015 RMK A01 T00501074  RH  040%=      5-min Rain = 0
KAD1 171827Z 33000KT 05/M07 A3015 RMK A01 T00521072  RH  040%=      5-min Rain = 0
KAD1 171828Z 31001KT 05/M07 A3015 RMK A01 T00541072  RH  040%=      5-min Rain = 0
KAD1 171829Z 31001KT 06/M07 A3015 RMK A01 T00551073  RH  039%=      5-min Rain = 0
KAD1 171830Z 31001KT 05/M07 A3015 RMK A01 T00541074  RH  039%=      5-min Rain = 0
KAD1 171831Z 31002KT 05/M08 A3015 RMK A01 T00541075  RH  039%=      5-min Rain = 0
KAD1 171832Z 32002KT 05/M08 A3014 RMK A01 T00541075  RH  039%=      5-min Rain = 0
KAD1 171833Z 31002KT 05/M08 A3014 RMK A01 T00531076  RH  039%=      5-min Rain = 0
KAD1 171834Z 30001KT 05/M08 A3014 RMK A01 T00531077  RH  038%=      5-min Rain = 0
KAD1 171835Z 30000KT 05/M08 A3014 RMK A01 T00541078  RH  038%=      5-min Rain = 0
KAD1 171836Z 06001KT 06/M08 A3014 RMK A01 T00561076  RH  038%=      5-min Rain = 0
KAD1 171837Z 13001KT 06/M07 A3014 RMK A01 T00591074  RH  038%=      5-min Rain = 0
KAD1 171838Z 10001KT 06/M07 A3014 RMK A01 T00611072  RH  038%=      5-min Rain = 0
KAD1 171839Z 11002KT 06/M07 A3014 RMK A01 T00611073  RH  038%=      5-min Rain = 0
KAD1 171840Z 12001KT 06/M07 A3014 RMK A01 T00591073  RH  038%=      5-min Rain = 0
KAD1 171841Z 11002KT 06/M07 A3014 RMK A01 T00591073  RH  038%=      5-min Rain = 0
KAD1 171842Z 13004KT 06/M07 A3014 RMK A01 T00601074  RH  038%=      5-min Rain = 0
KAD1 171843Z 11004KT 06/M07 A3013 RMK A01 T00591074  RH  038%=      5-min Rain = 0
KAD1 171844Z 12006KT 06/M08 A3013 RMK A01 T00601075  RH  038%=      5-min Rain = 0
KAD1 171845Z 14005KT 06/M08 A3013 RMK A01 T00591076  RH  037%=      5-min Rain = 0
KAD1 171846Z 14003KT 06/M08 A3013 RMK A01 T00571077  RH  038%=      5-min Rain = 0
KAD1 171847Z 14002KT 06/M08 A3013 RMK A01 T00571077  RH  037%=      5-min Rain = 0
KAD1 171848Z 14004KT 06/M08 A3013 RMK A01 T00581075  RH  038%=      5-min Rain = 0
KAD1 171849Z 14004KT 06/M07 A3013 RMK A01 T00601073  RH  038%=      5-min Rain = 0
KAD1 171850Z 09001KT 06/M08 A3013 RMK A01 T00601075  RH  037%=      5-min Rain = 0
KAD1 171851Z 07002KT 06/M08 A3013 RMK A01 T00591077  RH  037%=      5-min Rain = 0
KAD1 171852Z 05002KT 06/M08 A3013 RMK A01 T00581077  RH  037%=      5-min Rain = 0
KAD1 171853Z 04002KT 06/M08 A3013 RMK A01 T00581077  RH  037%=      5-min Rain = 0
KAD1 171854Z 05002KT 06/M08 A3013 RMK A01 T00571078  RH  037%=      5-min Rain = 0
KAD1 171855Z 02001KT 06/M08 A3013 RMK A01 T00571079  RH  037%=      5-min Rain = 0
KAD1 171856Z 18002KT 06/M08 A3013 RMK A01 T00571077  RH  037%=      5-min Rain = 0
KAD1 171857Z 19006KT 06/M08 A3013 RMK A01 T00601076  RH  037%=      5-min Rain = 0
KAD1 171858Z 20006KT 06/M08 A3013 RMK A01 T00601077  RH  037%=      5-min Rain = 0
KAD1 171859Z 19005KT 06/M08 A3013 RMK A01 T00601078  RH  036%=      5-min Rain = 0
KAD1 171900Z 18004KT 06/M08 A3013 RMK A01 T00601078  RH  036%=      5-min Rain = 0
KAD1 171901Z 18004KT 06/M08 A3013 RMK A01 T00601077  RH  037%=      5-min Rain = 0
KAD1 171902Z 20002KT 06/M08 A3013 RMK A01 T00611077  RH  036%=      5-min Rain = 0
KAD1 171903Z 18005KT 06/M08 A3013 RMK A01 T00621077  RH  036%=      5-min Rain = 0
KAD1 171904Z 17004KT 06/M08 A3013 RMK A01 T00641076  RH  036%=      5-min Rain = 0
KAD1 171905Z 10001KT 07/M08 A3013 RMK A01 T00651076  RH  036%=      5-min Rain = 0
KAD1 171906Z 07002KT 07/M08 A3013 RMK A01 T00651076  RH  036%=      5-min Rain = 0
KAD1 171907Z 11003KT 07/M07 A3013 RMK A01 T00651074  RH  036%=      5-min Rain = 0
KAD1 171908Z 14002KT 07/M08 A3013 RMK A01 T00651075  RH  036%=      5-min Rain = 0
KAD1 171909Z 18000KT 07/M08 A3013 RMK A01 T00661076  RH  035%=      5-min Rain = 0
KAD1 171910Z 13001KT 07/M08 A3013 RMK A01 T00681075  RH  035%=      5-min Rain = 0
KAD1 171911Z 16001KT 07/M07 A3013 RMK A01 T00691072  RH  036%=      5-min Rain = 0
KAD1 171912Z 30001KT 07/M07 A3013 RMK A01 T00711070  RH  036%=      5-min Rain = 0
KAD1 171913Z 23001KT 07/M07 A3013 RMK A01 T00731072  RH  035%=      5-min Rain = 0
KAD1 171914Z 24001KT 07/M07 A3013 RMK A01 T00731074  RH  034%=      5-min Rain = 0
KAD1 171915Z 26002KT 07/M07 A3013 RMK A01 T00731074  RH  034%=      5-min Rain = 0
KAD1 171916Z 25005KT 07/M07 A3013 RMK A01 T00721074  RH  035%=      5-min Rain = 0
KAD1 171917Z 25006KT 07/M08 A3013 RMK A01 T00701075  RH  035%=      5-min Rain = 0
KAD1 171918Z 25004KT 07/M08 A3013 RMK A01 T00651077  RH  035%=      5-min Rain = 0
KAD1 171919Z 25003KT 06/M08 A3013 RMK A01 T00631076  RH  036%=      5-min Rain = 0
KAD1 171920Z 25003KT 06/M08 A3013 RMK A01 T00631076  RH  036%=      5-min Rain = 0
KAD1 171921Z 22003KT 06/M08 A3013 RMK A01 T00621076  RH  036%=      5-min Rain = 0
KAD1 171922Z 25002KT 06/M08 A3013 RMK A01 T00631076  RH  036%=      5-min Rain = 0
KAD1 171923Z 29001KT 06/M08 A3013 RMK A01 T00621076  RH  036%=      5-min Rain = 0
KAD1 171924Z 03003KT 06/M07 A3013 RMK A01 T00631074  RH  037%=      5-min Rain = 0
KAD1 171925Z 02002KT 06/M08 A3013 RMK A01 T00631075  RH  036%=      5-min Rain = 0
KAD1 171926Z 10001KT 06/M08 A3013 RMK A01 T00631075  RH  036%=      5-min Rain = 0
KAD1 171927Z 03000KT 06/M08 A3013 RMK A01 T00641075  RH  036%=      5-min Rain = 0
KAD1 171928Z 06001KT 07/M08 A3013 RMK A01 T00651075  RH  036%=      5-min Rain = 0
KAD1 171929Z 18000KT 07/M08 A3013 RMK A01 T00651076  RH  036%=      5-min Rain = 0
KAD1 171930Z 08000KT 06/M08 A3013 RMK A01 T00641076  RH  036%=      5-min Rain = 0
KAD1 171931Z 15001KT 06/M08 A3013 RMK A01 T00641077  RH  036%=      5-min Rain = 0
KAD1 171932Z 16002KT 07/M08 A3013 RMK A01 T00651076  RH  036%=      5-min Rain = 0
KAD1 171933Z 15001KT 07/M07 A3013 RMK A01 T00671074  RH  036%=      5-min Rain = 0
KAD1 171934Z 14001KT 07/M07 A3013 RMK A01 T00711073  RH  035%=      5-min Rain = 0
KAD1 171935Z 12000KT 07/M07 A3013 RMK A01 T00721073  RH  035%=      5-min Rain = 0
KAD1 171936Z 13001KT 07/M07 A3013 RMK A01 T00731074  RH  034%=      5-min Rain = 0
KAD1 171937Z 12001KT 07/M07 A3013 RMK A01 T00741073  RH  034%=      5-min Rain = 0
KAD1 171938Z 06001KT 07/M08 A3013 RMK A01 T00741075  RH  034%=      5-min Rain = 0
KAD1 171939Z 02003KT 07/M07 A3012 RMK A01 T00731074  RH  034%=      5-min Rain = 0
KAD1 171940Z 05004KT 07/M07 A3012 RMK A01 T00721073  RH  035%=      5-min Rain = 0
KAD1 171941Z 05005KT 07/M07 A3012 RMK A01 T00701074  RH  035%=      5-min Rain = 0
KAD1 171942Z 06004KT 07/M07 A3012 RMK A01 T00681074  RH  035%=      5-min Rain = 0
KAD1 171943Z 07006KT 07/M07 A3012 RMK A01 T00671074  RH  036%=      5-min Rain = 0
KAD1 171944Z 06004KT 07/M08 A3012 RMK A01 T00661075  RH  036%=      5-min Rain = 0
KAD1 171945Z 05006KT 07/M07 A3012 RMK A01 T00661072  RH  037%=      5-min Rain = 0
KAD1 171946Z 05004KT 07/M08 A3012 RMK A01 T00661075  RH  036%=      5-min Rain = 0
KAD1 171947Z 01001KT 06/M08 A3012 RMK A01 T00641076  RH  036%=      5-min Rain = 0
KAD1 171948Z 33001KT 06/M08 A3012 RMK A01 T00641076  RH  036%=      5-min Rain = 0
KAD1 171949Z 03002KT 07/M07 A3012 RMK A01 T00651074  RH  036%=      5-min Rain = 0
KAD1 171950Z 06003KT 07/M07 A3012 RMK A01 T00671072  RH  036%=      5-min Rain = 0
KAD1 171951Z 05005KT 07/M07 A3012 RMK A01 T00681073  RH  036%=      5-min Rain = 0
KAD1 171952Z 08003KT 07/M07 A3012 RMK A01 T00671074  RH  036%=      5-min Rain = 0
KAD1 171953Z 09002KT 07/M07 A3012 RMK A01 T00661074  RH  036%=      5-min Rain = 0
KAD1 171954Z 05003KT 07/M07 A3012 RMK A01 T00671072  RH  036%=      5-min Rain = 0
KAD1 171955Z 03001KT 07/M07 A3011 RMK A01 T00671074  RH  036%=      5-min Rain = 0
KAD1 171956Z 35000KT 07/M08 A3011 RMK A01 T00661076  RH  036%=      5-min Rain = 0
KAD1 171957Z 04001KT 07/M08 A3011 RMK A01 T00661075  RH  036%=      5-min Rain = 0
KAD1 171958Z 02002KT 07/M07 A3011 RMK A01 T00671074  RH  036%=      5-min Rain = 0
KAD1 171959Z 34003KT 07/M07 A3011 RMK A01 T00671074  RH  036%=      5-min Rain = 0
KAD1 172000Z 34003KT 07/M07 A3011 RMK A01 T00671073  RH  036%=      5-min Rain = 0
KAD1 172001Z 33000KT 07/M08 A3011 RMK A01 T00671075  RH  036%=      5-min Rain = 0
KAD1 172002Z 00000KT 07/M08 A3011 RMK A01 T00671075  RH  035%=      5-min Rain = 0
KAD1 172003Z 02001KT 07/M07 A3011 RMK A01 T00691073  RH  036%=      5-min Rain = 0
KAD1 172004Z 35001KT 07/M07 A3011 RMK A01 T00701074  RH  035%=      5-min Rain = 0
KAD1 172005Z 34002KT 07/M07 A3011 RMK A01 T00691074  RH  035%=      5-min Rain = 0
KAD1 172006Z 05000KT 07/M08 A3011 RMK A01 T00681075  RH  035%=      5-min Rain = 0
KAD1 172007Z 06001KT 07/M07 A3011 RMK A01 T00671074  RH  036%=      5-min Rain = 0
KAD1 172008Z 04001KT 07/M07 A3011 RMK A01 T00681072  RH  036%=      5-min Rain = 0
KAD1 172009Z 00001KT 07/M07 A3011 RMK A01 T00701072  RH  036%=      5-min Rain = 0
KAD1 172010Z 28002KT 07/M07 A3011 RMK A01 T00721070  RH  036%=      5-min Rain = 0
KAD1 172011Z 25002KT 07/M07 A3011 RMK A01 T00721073  RH  035%=      5-min Rain = 0
KAD1 172012Z 29002KT 07/M07 A3011 RMK A01 T00721071  RH  035%=      5-min Rain = 0
KAD1 172013Z 32002KT 07/M07 A301 RMK A01 T00741069  RH  036%=      5-min Rain = 0
KAD1 172014Z 31003KT 07/M07 A301 RMK A01 T00741072  RH  035%=      5-min Rain = 0
KAD1 172015Z 30003KT 07/M07 A301 RMK A01 T00711074  RH  035%=      5-min Rain = 0
KAD1 172016Z 28003KT 07/M08 A301 RMK A01 T00691075  RH  035%=      5-min Rain = 0
KAD1 172017Z 30001KT 07/M07 A301 RMK A01 T00681074  RH  035%=      5-min Rain = 0
KAD1 172018Z 28002KT 07/M07 A301 RMK A01 T00701071  RH  036%=      5-min Rain = 0
KAD1 172019Z 25004KT 07/M07 A301 RMK A01 T00711072  RH  035%=      5-min Rain = 0
KAD1 172020Z 20003KT 07/M07 A301 RMK A01 T00711072  RH  035%=      5-min Rain = 0
KAD1 172021Z 20003KT 07/M07 A301 RMK A01 T00721070  RH  036%=      5-min Rain = 0
KAD1 172022Z 17004KT 07/M07 A301 RMK A01 T00741071  RH  035%=      5-min Rain = 0
KAD1 172023Z 16003KT 07/M07 A301 RMK A01 T00741073  RH  034%=      5-min Rain = 0
KAD1 172024Z 13001KT 07/M07 A301 RMK A01 T00731074  RH  035%=      5-min Rain = 0
KAD1 172025Z 15002KT 07/M07 A301 RMK A01 T00711073  RH  035%=      5-min Rain = 0
KAD1 172026Z 16002KT 07/M07 A301 RMK A01 T00721073  RH  035%=      5-min Rain = 0
KAD1 172027Z 20004KT 07/M07 A3009 RMK A01 T00721074  RH  035%=      5-min Rain = 0
KAD1 172028Z 20007KT 07/M07 A3009 RMK A01 T00731072  RH  035%=      5-min Rain = 0
KAD1 172029Z 20008KT 07/M07 A3009 RMK A01 T00741072  RH  035%=      5-min Rain = 0
KAD1 172030Z 19006KT 07/M07 A3009 RMK A01 T00741073  RH  034%=      5-min Rain = 0
KAD1 172031Z 19005KT 07/M07 A3009 RMK A01 T00731074  RH  035%=      5-min Rain = 0
KAD1 172032Z 20007KT 07/M07 A3009 RMK A01 T00721073  RH  035%=      5-min Rain = 0
KAD1 172033Z 22005KT 07/M07 A301 RMK A01 T00721074  RH  035%=      5-min Rain = 0
KAD1 172034Z 24004KT 07/M07 A301 RMK A01 T00711074  RH  035%=      5-min Rain = 0
KAD1 172035Z 17003KT 07/M07 A301 RMK A01 T00711072  RH  035%=      5-min Rain = 0
KAD1 172036Z 18003KT 07/M07 A301 RMK A01 T00721072  RH  035%=      5-min Rain = 0
KAD1 172037Z 17003KT 07/M07 A301 RMK A01 T00731073  RH  035%=      5-min Rain = 0
KAD1 172038Z 18004KT 07/M07 A301 RMK A01 T00741072  RH  035%=      5-min Rain = 0
KAD1 172039Z 18004KT 07/M07 A301 RMK A01 T00741073  RH  034%=      5-min Rain = 0
KAD1 172040Z 15003KT 07/M07 A301 RMK A01 T00741073  RH  034%=      5-min Rain = 0
KAD1 172041Z 13003KT 07/M07 A3009 RMK A01 T00731074  RH  034%=      5-min Rain = 0
KAD1 172042Z 13003KT 07/M07 A3009 RMK A01 T00731072  RH  035%=      5-min Rain = 0
KAD1 172043Z 12001KT 07/M07 A3009 RMK A01 T00741072  RH  035%=      5-min Rain = 0
KAD1 172044Z 06001KT 07/M07 A3009 RMK A01 T00741072  RH  035%=      5-min Rain = 0
KAD1 172045Z 05000KT 07/M07 A3009 RMK A01 T00741073  RH  034%=      5-min Rain = 0
KAD1 172046Z 30001KT 08/M07 A3009 RMK A01 T00751072  RH  034%=      5-min Rain = 0
KAD1 172047Z 31002KT 08/M07 A3009 RMK A01 T00761072  RH  034%=      5-min Rain = 0
KAD1 172048Z 32004KT 08/M07 A3009 RMK A01 T00761073  RH  034%=      5-min Rain = 0
KAD1 172049Z 30003KT 08/M07 A3009 RMK A01 T00761073  RH  034%=      5-min Rain = 0
KAD1 172050Z 27002KT 07/M07 A3009 RMK A01 T00741074  RH  034%=      5-min Rain = 0
KAD1 172051Z 23001KT 07/M07 A3009 RMK A01 T00741074  RH  034%=      5-min Rain = 0
KAD1 172052Z 26001KT 07/M07 A3009 RMK A01 T00741074  RH  034%=      5-min Rain = 0
KAD1 172053Z 16001KT 08/M07 A3009 RMK A01 T00771072  RH  034%=      5-min Rain = 0
KAD1 172054Z 14003KT 08/M07 A3009 RMK A01 T00801069  RH  034%=      5-min Rain = 0
KAD1 172055Z 20006KT 08/M07 A3009 RMK A01 T00831069  RH  033%=      5-min Rain = 0
KAD1 172056Z 20004KT 08/M07 A3009 RMK A01 T00831072  RH  033%=      5-min Rain = 0
KAD1 172057Z 22004KT 08/M07 A3009 RMK A01 T00821072  RH  033%=      5-min Rain = 0
KAD1 172058Z 24005KT 08/M07 A3009 RMK A01 T00831071  RH  033%=      5-min Rain = 0
KAD1 172059Z 24004KT 08/M07 A3009 RMK A01 T00811073  RH  033%=      5-min Rain = 0
KAD1 172100Z 24002KT 08/M07 A3009 RMK A01 T00801071  RH  033%=      5-min Rain = 0
KAD1 172101Z 27002KT 08/M07 A3009 RMK A01 T00811071  RH  033%=      5-min Rain = 0
KAD1 172102Z 26003KT 08/M07 A3009 RMK A01 T00821070  RH  033%=      5-min Rain = 0
KAD1 172103Z 25005KT 08/M07 A3009 RMK A01 T00831072  RH  033%=      5-min Rain = 0
KAD1 172104Z 24005KT 08/M07 A3009 RMK A01 T00811073  RH  033%=      5-min Rain = 0
KAD1 172105Z 24003KT 08/M07 A3009 RMK A01 T00801073  RH  033%=      5-min Rain = 0
KAD1 172106Z 15000KT 08/M07 A3009 RMK A01 T00791074  RH  033%=      5-min Rain = 0
KAD1 172107Z 27002KT 08/M07 A3009 RMK A01 T00781074  RH  033%=      5-min Rain = 0
KAD1 172108Z 24002KT 08/M07 A3009 RMK A01 T00791073  RH  033%=      5-min Rain = 0
KAD1 172109Z 20003KT 08/M07 A3009 RMK A01 T00811071  RH  033%=      5-min Rain = 0
KAD1 172110Z 19002KT 08/M07 A3009 RMK A01 T00831071  RH  033%=      5-min Rain = 0
KAD1 172111Z 18003KT 08/M07 A3009 RMK A01 T00841071  RH  033%=      5-min Rain = 0
KAD1 172112Z 19001KT 08/M07 A3009 RMK A01 T00841072  RH  032%=      5-min Rain = 0
KAD1 172113Z 19000KT 09/M07 A3009 RMK A01 T00851070  RH  033%=      5-min Rain = 0
KAD1 172114Z 35000KT 09/M07 A3009 RMK A01 T00861072  RH  032%=      5-min Rain = 0
KAD1 172115Z 28000KT 09/M07 A3009 RMK A01 T00871070  RH  032%=      5-min Rain = 0
KAD1 172116Z 24001KT 09/M07 A3009 RMK A01 T00881072  RH  032%=      5-min Rain = 0
KAD1 172117Z 15003KT 09/M07 A3009 RMK A01 T00871073  RH  031%=      5-min Rain = 0
KAD1 172118Z 10002KT 09/M07 A3009 RMK A01 T00851074  RH  032%=      5-min Rain = 0
KAD1 172119Z 29002KT 08/M08 A3009 RMK A01 T00811075  RH  032%=      5-min Rain = 0
KAD1 172120Z 29003KT 08/M07 A3009 RMK A01 T00801074  RH  033%=      5-min Rain = 0
KAD1 172121Z 30003KT 08/M07 A3009 RMK A01 T00811073  RH  033%=      5-min Rain = 0
KAD1 172122Z 29004KT 08/M07 A3009 RMK A01 T00811072  RH  033%=      5-min Rain = 0
KAD1 172123Z 30002KT 08/M07 A3009 RMK A01 T00801073  RH  033%=      5-min Rain = 0
KAD1 172124Z 30001KT 08/M07 A3008 RMK A01 T00791073  RH  033%=      5-min Rain = 0
KAD1 172125Z 27002KT 08/M07 A3008 RMK A01 T00791073  RH  033%=      5-min Rain = 0
KAD1 172126Z 33001KT 08/M07 A3008 RMK A01 T00801073  RH  033%=      5-min Rain = 0
KAD1 172127Z 11001KT 08/M07 A3008 RMK A01 T00821070  RH  033%=      5-min Rain = 0
KAD1 172128Z 11002KT 08/M07 A3008 RMK A01 T00831072  RH  033%=      5-min Rain = 0
KAD1 172129Z 17002KT 08/M07 A3008 RMK A01 T00831073  RH  033%=      5-min Rain = 0
KAD1 172130Z 19004KT 08/M07 A3008 RMK A01 T00831072  RH  033%=      5-min Rain = 0
KAD1 172131Z 19004KT 08/M07 A3008 RMK A01 T00841072  RH  032%=      5-min Rain = 0
KAD1 172132Z 19004KT 08/M07 A3008 RMK A01 T00831072  RH  033%=      5-min Rain = 0
KAD1 172133Z 18005KT 08/M07 A3008 RMK A01 T00831070  RH  033%=      5-min Rain = 0
KAD1 172134Z 17004KT 08/M07 A3008 RMK A01 T00831071  RH  033%=      5-min Rain = 0
KAD1 172135Z 15003KT 08/M07 A3008 RMK A01 T00831070  RH  033%=      5-min Rain = 0
KAD1 172136Z 13004KT 08/M07 A3008 RMK A01 T00841069  RH  033%=      5-min Rain = 0
KAD1 172137Z 14003KT 09/M07 A3008 RMK A01 T00851070  RH  033%=      5-min Rain = 0
KAD1 172138Z 17004KT 08/M07 A3007 RMK A01 T00841072  RH  032%=      5-min Rain = 0
KAD1 172139Z 18004KT 08/M07 A3007 RMK A01 T00841069  RH  033%=      5-min Rain = 0
KAD1 172140Z 21005KT 09/M07 A3007 RMK A01 T00851070  RH  033%=      5-min Rain = 0
KAD1 172141Z 19007KT 09/M07 A3007 RMK A01 T00851070  RH  033%=      5-min Rain = 0
KAD1 172142Z 21006KT 08/M07 A3007 RMK A01 T00841070  RH  033%=      5-min Rain = 0
KAD1 172143Z 19006KT 09/M07 A3007 RMK A01 T00851070  RH  033%=      5-min Rain = 0
KAD1 172144Z 17005KT 09/M07 A3007 RMK A01 T00851070  RH  033%=      5-min Rain = 0
KAD1 172145Z 17005KT 09/M07 A3007 RMK A01 T00851070  RH  033%=      5-min Rain = 0
KAD1 172146Z 19005KT 08/M07 A3007 RMK A01 T00841071  RH  033%=      5-min Rain = 0
KAD1 172147Z 19005KT 08/M07 A3007 RMK A01 T00841071  RH  033%=      5-min Rain = 0
KAD1 172148Z 17006KT 08/M07 A3007 RMK A01 T00841070  RH  033%=      5-min Rain = 0
KAD1 172149Z 20007KT 09/M07 A3006 RMK A01 T00861069  RH  033%=      5-min Rain = 0
KAD1 172150Z 20009KT 09/M07 A3006 RMK A01 T00861071  RH  032%=      5-min Rain = 0
KAD1 172151Z 20008KT 09/M07 A3006 RMK A01 T00861071  RH  032%=      5-min Rain = 0
KAD1 172152Z 20006KT 08/M07 A3006 RMK A01 T00841073  RH  032%=      5-min Rain = 0
KAD1 172153Z 19005KT 08/M07 A3006 RMK A01 T00831073  RH  032%=      5-min Rain = 0
KAD1 172154Z 20004KT 08/M07 A3006 RMK A01 T00821073  RH  032%=      5-min Rain = 0
KAD1 172155Z 17004KT 08/M07 A3006 RMK A01 T00821072  RH  033%=      5-min Rain = 0
KAD1 172156Z 17004KT 08/M07 A3006 RMK A01 T00821072  RH  033%=      5-min Rain = 0
KAD1 172157Z 19006KT 08/M07 A3006 RMK A01 T00831072  RH  033%=      5-min Rain = 0
KAD1 172158Z 21005KT 08/M07 A3006 RMK A01 T00831072  RH  033%=      5-min Rain = 0
KAD1 172159Z 21007KT 08/M07 A3006 RMK A01 T00841071  RH  033%=      5-min Rain = 0
KAD1 172200Z 21008KT 09/M07 A3006 RMK A01 T00851072  RH  032%=      5-min Rain = 0
KAD1 172201Z 22006KT 09/M07 A3006 RMK A01 T00851073  RH  032%=      5-min Rain = 0
KAD1 172202Z 21007KT 08/M07 A3006 RMK A01 T00841073  RH  032%=      5-min Rain = 0
KAD1 172203Z 19006KT 08/M07 A3006 RMK A01 T00841073  RH  032%=      5-min Rain = 0
KAD1 172204Z 19006KT 08/M07 A3006 RMK A01 T00841074  RH  032%=      5-min Rain = 0
KAD1 172205Z 20006KT 08/M07 A3006 RMK A01 T00831074  RH  032%=      5-min Rain = 0
KAD1 172206Z 22005KT 08/M07 A3006 RMK A01 T00831074  RH  032%=      5-min Rain = 0
KAD1 172207Z 21006KT 08/M07 A3006 RMK A01 T00831073  RH  032%=      5-min Rain = 0
KAD1 172208Z 24005KT 08/M07 A3006 RMK A01 T00841073  RH  032%=      5-min Rain = 0
KAD1 172209Z 24004KT 08/M07 A3006 RMK A01 T00831074  RH  032%=      5-min Rain = 0
KAD1 172210Z 18005KT 08/M07 A3006 RMK A01 T00821074  RH  032%=      5-min Rain = 0
KAD1 172211Z 20008KT 08/M07 A3006 RMK A01 T00831072  RH  033%=      5-min Rain = 0
KAD1 172212Z 20008KT 09/M07 A3006 RMK A01 T00851071  RH  032%=      5-min Rain = 0
KAD1 172213Z 18008KT 08/M07 A3006 RMK A01 T00841073  RH  032%=      5-min Rain = 0
KAD1 172214Z 18006KT 08/M07 A3006 RMK A01 T00821074  RH  032%=      5-min Rain = 0
KAD1 172215Z 17005KT 08/M07 A3006 RMK A01 T00821073  RH  033%=      5-min Rain = 0
KAD1 172216Z 17004KT 08/M07 A3006 RMK A01 T00821073  RH  033%=      5-min Rain = 0
KAD1 172217Z 17004KT 08/M07 A3006 RMK A01 T00821071  RH  033%=      5-min Rain = 0
KAD1 172218Z 17005KT 08/M07 A3006 RMK A01 T00831072  RH  033%=      5-min Rain = 0
KAD1 172219Z 16006KT 08/M07 A3006 RMK A01 T00841071  RH  033%=      5-min Rain = 0
KAD1 172220Z 16008KT 08/M07 A3005 RMK A01 T00841072  RH  032%=      5-min Rain = 0
KAD1 172221Z 19007KT 08/M07 A3005 RMK A01 T00841071  RH  033%=      5-min Rain = 0
KAD1 172222Z 20007KT 08/M07 A3005 RMK A01 T00841071  RH  032%=      5-min Rain = 0
KAD1 172223Z 18009KT 08/M07 A3006 RMK A01 T00841071  RH  033%=      5-min Rain = 0
KAD1 172224Z 18008KT 08/M07 A3006 RMK A01 T00841071  RH  033%=      5-min Rain = 0
KAD1 172225Z 18006KT 08/M07 A3006 RMK A01 T00831072  RH  033%=      5-min Rain = 0
KAD1 172226Z 17004KT 08/M07 A3006 RMK A01 T00821073  RH  032%=      5-min Rain = 0
KAD1 172227Z 17005KT 08/M07 A3005 RMK A01 T00821073  RH  033%=      5-min Rain = 0
KAD1 172228Z 18006KT 08/M07 A3005 RMK A01 T00821072  RH  033%=      5-min Rain = 0
KAD1 172229Z 19007KT 08/M07 A3005 RMK A01 T00821073  RH  033%=      5-min Rain = 0
KAD1 172230Z 19009KT 08/M07 A3005 RMK A01 T00821072  RH  033%=      5-min Rain = 0
KAD1 172231Z 19006KT 08/M07 A3005 RMK A01 T00831072  RH  033%=      5-min Rain = 0
KAD1 172232Z 18007KT 08/M07 A3005 RMK A01 T00841070  RH  033%=      5-min Rain = 0
KAD1 172233Z 18008KT 09/M07 A3005 RMK A01 T00851070  RH  033%=      5-min Rain = 0
KAD1 172234Z 20008KT 08/M07 A3005 RMK A01 T00841072  RH  032%=      5-min Rain = 0
KAD1 172235Z 19007KT 08/M07 A3005 RMK A01 T00831073  RH  032%=      5-min Rain = 0
KAD1 172236Z 19008KT 08/M07 A3005 RMK A01 T00821073  RH  033%=      5-min Rain = 0
KAD1 172237Z 17008KT 08/M07 A3005 RMK A01 T00821072  RH  033%=      5-min Rain = 0
KAD1 172238Z 17007KT 08/M07 A3005 RMK A01 T00821072  RH  033%=      5-min Rain = 0
KAD1 172239Z 17007KT 08/M07 A3005 RMK A01 T00821072  RH  033%=      5-min Rain = 0
KAD1 172240Z 17008KT 08/M07 A3005 RMK A01 T00821072  RH  033%=      5-min Rain = 0
KAD1 172241Z 17009KT 08/M07 A3005 RMK A01 T00821071  RH  033%=      5-min Rain = 0
KAD1 172242Z 18010KT 08/M07 A3005 RMK A01 T00831071  RH  033%=      5-min Rain = 0
KAD1 172243Z 18008KT 08/M07 A3005 RMK A01 T00831071  RH  033%=      5-min Rain = 0
KAD1 172244Z 19007KT 08/M07 A3005 RMK A01 T00821072  RH  033%=      5-min Rain = 0
KAD1 172245Z 19007KT 08/M07 A3005 RMK A01 T00811072  RH  033%=      5-min Rain = 0
KAD1 172246Z 18008KT 08/M07 A3005 RMK A01 T00821071  RH  033%=      5-min Rain = 0
KAD1 172247Z 18009KT 08/M07 A3005 RMK A01 T00831071  RH  033%=      5-min Rain = 0
KAD1 172248Z 18007KT 08/M07 A3005 RMK A01 T00821072  RH  033%=      5-min Rain = 0
KAD1 172249Z 18009KT 08/M07 A3005 RMK A01 T00831071  RH  033%=      5-min Rain = 0
KAD1 172250Z 18011KT 08/M07 A3005 RMK A01 T00821071  RH  033%=      5-min Rain = 0
KAD1 172251Z 18010KT 08/M07 A3005 RMK A01 T00821071  RH  033%=      5-min Rain = 0
KAD1 172252Z 18010KT 08/M07 A3005 RMK A01 T00821071  RH  033%=      5-min Rain = 0
KAD1 172253Z 18010KT 08/M07 A3005 RMK A01 T00821070  RH  033%=      5-min Rain = 0
KAD1 172254Z 18008KT 08/M07 A3005 RMK A01 T00821072  RH  033%=      5-min Rain = 0
KAD1 172255Z 18009KT 08/M07 A3005 RMK A01 T00821072  RH  033%=      5-min Rain = 0
KAD1 172256Z 17009KT 08/M07 A3005 RMK A01 T00811071  RH  033%=      5-min Rain = 0
KAD1 172257Z 18010KT 08/M07 A3005 RMK A01 T00811071  RH  033%=      5-min Rain = 0
KAD1 172258Z 17009KT 08/M07 A3005 RMK A01 T00811071  RH  033%=      5-min Rain = 0
KAD1 172259Z 18011KT 08/M07 A3005 RMK A01 T00821071  RH  033%=      5-min Rain = 0
KAD1 172300Z 18010KT 08/M07 A3005 RMK A01 T00811071  RH  033%=      5-min Rain = 0
KAD1 172301Z 19009KT 08/M07 A3005 RMK A01 T00811071  RH  033%=      5-min Rain = 0
KAD1 172302Z 19010KT 08/M07 A3005 RMK A01 T00811071  RH  033%=      5-min Rain = 0
KAD1 172303Z 19009KT 08/M07 A3005 RMK A01 T00811072  RH  033%=      5-min Rain = 0
KAD1 172304Z 19009KT 08/M07 A3005 RMK A01 T00801072  RH  033%=      5-min Rain = 0
KAD1 172305Z 20011KT 08/M07 A3005 RMK A01 T00801072  RH  033%=      5-min Rain = 0
KAD1 172306Z 20010KT 08/M07 A3005 RMK A01 T00791072  RH  033%=      5-min Rain = 0
KAD1 172307Z 20009KT 08/M07 A3005 RMK A01 T00791072  RH  033%=      5-min Rain = 0
KAD1 172308Z 20009KT 08/M07 A3005 RMK A01 T00791073  RH  033%=      5-min Rain = 0
KAD1 172309Z 20008KT 08/M07 A3005 RMK A01 T00781072  RH  034%=      5-min Rain = 0
KAD1 172310Z 20008KT 08/M07 A3005 RMK A01 T00781072  RH  034%=      5-min Rain = 0
KAD1 172311Z 19009KT 08/M07 A3005 RMK A01 T00771072  RH  034%=      5-min Rain = 0
KAD1 172312Z 19009KT 08/M07 A3005 RMK A01 T00771071  RH  034%=      5-min Rain = 0
KAD1 172313Z 19008KT 08/M07 A3005 RMK A01 T00771072  RH  034%=      5-min Rain = 0
KAD1 172314Z 19007KT 08/M07 A3005 RMK A01 T00761071  RH  034%=      5-min Rain = 0
KAD1 172315Z 20007KT 08/M07 A3005 RMK A01 T00761071  RH  034%=      5-min Rain = 0
KAD1 172316Z 20008KT 08/M07 A3005 RMK A01 T00761071  RH  034%=      5-min Rain = 0
KAD1 172317Z 19008KT 08/M07 A3005 RMK A01 T00761072  RH  034%=      5-min Rain = 0
KAD1 172318Z 20008KT 08/M07 A3005 RMK A01 T00761072  RH  034%=      5-min Rain = 0
KAD1 172319Z 20006KT 08/M07 A3005 RMK A01 T00751071  RH  035%=      5-min Rain = 0
KAD1 172320Z 20008KT 08/M07 A3005 RMK A01 T00751071  RH  035%=      5-min Rain = 0
KAD1 172321Z 20007KT 07/M07 A3005 RMK A01 T00741071  RH  035%=      5-min Rain = 0
KAD1 172322Z 20007KT 07/M07 A3005 RMK A01 T00741072  RH  035%=      5-min Rain = 0
KAD1 172323Z 20009KT 07/M07 A3005 RMK A01 T00741072  RH  035%=      5-min Rain = 0
KAD1 172324Z 20008KT 07/M07 A3005 RMK A01 T00731072  RH  035%=      5-min Rain = 0
KAD1 172325Z 20010KT 07/M07 A3005 RMK A01 T00731072  RH  035%=      5-min Rain = 0
KAD1 172326Z 20009KT 07/M07 A3005 RMK A01 T00721073  RH  035%=      5-min Rain = 0
KAD1 172327Z 20009KT 07/M07 A3005 RMK A01 T00721073  RH  035%=      5-min Rain = 0
KAD1 172328Z 20009KT 07/M07 A3005 RMK A01 T00711073  RH  035%=      5-min Rain = 0
KAD1 172329Z 19008KT 07/M07 A3005 RMK A01 T00701073  RH  035%=      5-min Rain = 0
KAD1 172330Z 20008KT 07/M07 A3005 RMK A01 T00691073  RH  035%=      5-min Rain = 0
KAD1 172331Z 19008KT 07/M07 A3005 RMK A01 T00681073  RH  036%=      5-min Rain = 0
KAD1 172332Z 20007KT 07/M07 A3005 RMK A01 T00681073  RH  036%=      5-min Rain = 0
KAD1 172333Z 20007KT 07/M07 A3005 RMK A01 T00671073  RH  036%=      5-min Rain = 0
KAD1 172334Z 20008KT 07/M07 A3005 RMK A01 T00661073  RH  036%=      5-min Rain = 0
KAD1 172335Z 20008KT 07/M07 A3005 RMK A01 T00651073  RH  037%=      5-min Rain = 0
KAD1 172336Z 20008KT 06/M07 A3005 RMK A01 T00641073  RH  037%=      5-min Rain = 0
KAD1 172337Z 20008KT 06/M07 A3004 RMK A01 T00631073  RH  037%=      5-min Rain = 0
KAD1 172338Z 20009KT 06/M07 A3004 RMK A01 T00621073  RH  037%=      5-min Rain = 0
KAD1 172339Z 19009KT 06/M07 A3004 RMK A01 T00621072  RH  038%=      5-min Rain = 0
KAD1 172340Z 19009KT 06/M07 A3004 RMK A01 T00621072  RH  038%=      5-min Rain = 0
KAD1 172341Z 19009KT 06/M07 A3004 RMK A01 T00601072  RH  038%=      5-min Rain = 0
KAD1 172342Z 19009KT 06/M07 A3004 RMK A01 T00591072  RH  038%=      5-min Rain = 0
KAD1 172343Z 19009KT 06/M07 A3004 RMK A01 T00591072  RH  039%=      5-min Rain = 0
KAD1 172344Z 19009KT 06/M07 A3004 RMK A01 T00581072  RH  039%=      5-min Rain = 0
KAD1 172345Z 19009KT 06/M07 A3004 RMK A01 T00571072  RH  039%=      5-min Rain = 0
KAD1 172346Z 19008KT 06/M07 A3004 RMK A01 T00551072  RH  039%=      5-min Rain = 0
KAD1 172347Z 19008KT 05/M07 A3004 RMK A01 T00541072  RH  040%=      5-min Rain = 0
KAD1 172348Z 19008KT 05/M07 A3004 RMK A01 T00531072  RH  040%=      5-min Rain = 0
KAD1 172349Z 19009KT 05/M07 A3004 RMK A01 T00511073  RH  040%=      5-min Rain = 0
KAD1 172350Z 19009KT 05/M07 A3004 RMK A01 T00501073  RH  041%=      5-min Rain = 0
KAD1 172351Z 19008KT 05/M07 A3004 RMK A01 T00491073  RH  041%=      5-min Rain = 0
KAD1 172352Z 19008KT 05/M07 A3004 RMK A01 T00481073  RH  041%=      5-min Rain = 0
KAD1 172353Z 19008KT 05/M07 A3004 RMK A01 T00471073  RH  042%=      5-min Rain = 0
KAD1 172354Z 19008KT 05/M07 A3004 RMK A01 T00451073  RH  042%=      5-min Rain = 0
KAD1 172355Z 19008KT 04/M07 A3004 RMK A01 T00431074  RH  042%=      5-min Rain = 0
KAD1 172356Z 19009KT 04/M07 A3004 RMK A01 T00421074  RH  043%=      5-min Rain = 0
KAD1 172357Z 18009KT 04/M07 A3004 RMK A01 T00411074  RH  043%=      5-min Rain = 0
KAD1 172358Z 19009KT 04/M07 A3004 RMK A01 T00411073  RH  043%=      5-min Rain = 0
KAD1 172359Z 19009KT 04/M07 A3004 RMK A01 T00401073  RH  043%=      5-min Rain = 0
KAD1 180000Z 19009KT 04/M07 A3004 RMK A01 T00401073  RH  044%=      5-min Rain = 0
KAD1 180001Z 19009KT 04/M07 A3004 RMK A01 T00391073  RH  044%=      5-min Rain = 0
KAD1 180002Z 19009KT 04/M07 A3004 RMK A01 T00381073  RH  044%=      5-min Rain = 0
KAD1 180003Z 19009KT 04/M07 A3004 RMK A01 T00371074  RH  044%=      5-min Rain = 0
KAD1 180004Z 19009KT 04/M07 A3004 RMK A01 T00361074  RH  044%=      5-min Rain = 0
KAD1 180005Z 19009KT 04/M07 A3004 RMK A01 T00351074  RH  045%=      5-min Rain = 0
KAD1 180006Z 19009KT 03/M08 A3004 RMK A01 T00341075  RH  045%=      5-min Rain = 0
KAD1 180007Z 19008KT 03/M08 A3004 RMK A01 T00331075  RH  045%=      5-min Rain = 0
KAD1 180008Z 19008KT 03/M08 A3004 RMK A01 T00321075  RH  045%=      5-min Rain = 0
KAD1 180009Z 19008KT 03/M08 A3004 RMK A01 T00311075  RH  046%=      5-min Rain = 0
KAD1 180010Z 19008KT 03/M08 A3004 RMK A01 T00301076  RH  046%=      5-min Rain = 0
KAD1 180011Z 19009KT 03/M08 A3004 RMK A01 T00281076  RH  046%=      5-min Rain = 0
KAD1 180012Z 19009KT 03/M08 A3004 RMK A01 T00271076  RH  046%=      5-min Rain = 0
KAD1 180013Z 19009KT 03/M08 A3004 RMK A01 T00261077  RH  047%=      5-min Rain = 0
KAD1 180014Z 19009KT 02/M08 A3004 RMK A01 T00241077  RH  047%=      5-min Rain = 0
KAD1 180015Z 19009KT 02/M08 A3004 RMK A01 T00231077  RH  047%=      5-min Rain = 0
KAD1 180016Z 19009KT 02/M08 A3004 RMK A01 T00231078  RH  048%=      5-min Rain = 0
KAD1 180017Z 18009KT 02/M08 A3004 RMK A01 T00221077  RH  048%=      5-min Rain = 0
KAD1 180018Z 18009KT 02/M08 A3004 RMK A01 T00221077  RH  048%=      5-min Rain = 0
KAD1 180019Z 18009KT 02/M08 A3004 RMK A01 T00211077  RH  048%=      5-min Rain = 0
KAD1 180020Z 18009KT 02/M08 A3004 RMK A01 T00201078  RH  048%=      5-min Rain = 0
KAD1 180021Z 18009KT 02/M08 A3004 RMK A01 T00201078  RH  048%=      5-min Rain = 0
KAD1 180022Z 18009KT 02/M08 A3004 RMK A01 T00191077  RH  049%=      5-min Rain = 0
KAD1 180023Z 18009KT 02/M08 A3004 RMK A01 T00191077  RH  049%=      5-min Rain = 0
KAD1 180024Z 18008KT 02/M08 A3004 RMK A01 T00191077  RH  049%=      5-min Rain = 0
KAD1 180025Z 18008KT 02/M08 A3004 RMK A01 T00191077  RH  049%=      5-min Rain = 0
KAD1 180026Z 18008KT 02/M08 A3004 RMK A01 T00181077  RH  049%=      5-min Rain = 0
KAD1 180027Z 18008KT 02/M08 A3004 RMK A01 T00171077  RH  049%=      5-min Rain = 0
KAD1 180028Z 18008KT 02/M08 A3004 RMK A01 T00161078  RH  050%=      5-min Rain = 0
KAD1 180029Z 18008KT 02/M08 A3004 RMK A01 T00161078  RH  050%=      5-min Rain = 0
KAD1 180030Z 18008KT 02/M08 A3004 RMK A01 T00151078  RH  050%=      5-min Rain = 0
KAD1 180031Z 18009KT 01/M08 A3004 RMK A01 T00141078  RH  050%=      5-min Rain = 0
KAD1 180032Z 18009KT 01/M08 A3004 RMK A01 T00141077  RH  050%=      5-min Rain = 0
KAD1 180033Z 18009KT 02/M08 A3004 RMK A01 T00151077  RH  050%=      5-min Rain = 0
KAD1 180034Z 18009KT 02/M08 A3004 RMK A01 T00161077  RH  050%=      5-min Rain = 0
KAD1 180035Z 18009KT 02/M08 A3004 RMK A01 T00161077  RH  050%=      5-min Rain = 0
KAD1 180036Z 18009KT 02/M08 A3004 RMK A01 T00171077  RH  050%=      5-min Rain = 0
KAD1 180037Z 18009KT 02/M08 A3004 RMK A01 T00181077  RH  049%=      5-min Rain = 0
KAD1 180038Z 18009KT 02/M08 A3004 RMK A01 T00191076  RH  049%=      5-min Rain = 0
KAD1 180039Z 18009KT 02/M08 A3004 RMK A01 T00191076  RH  049%=      5-min Rain = 0
KAD1 180040Z 18009KT 02/M08 A3004 RMK A01 T00201076  RH  049%=      5-min Rain = 0
KAD1 180041Z 18009KT 02/M08 A3004 RMK A01 T00201076  RH  049%=      5-min Rain = 0
KAD1 180042Z 18009KT 02/M08 A3004 RMK A01 T00191076  RH  049%=      5-min Rain = 0
KAD1 180043Z 18009KT 02/M08 A3004 RMK A01 T00191076  RH  049%=      5-min Rain = 0
KAD1 180044Z 18009KT 02/M08 A3004 RMK A01 T00181077  RH  049%=      5-min Rain = 0
KAD1 180045Z 18009KT 02/M08 A3004 RMK A01 T00181077  RH  049%=      5-min Rain = 0
KAD1 180046Z 18009KT 02/M08 A3004 RMK A01 T00171077  RH  050%=      5-min Rain = 0
KAD1 180047Z 18009KT 02/M08 A3004 RMK A01 T00171077  RH  050%=      5-min Rain = 0
KAD1 180048Z 18009KT 02/M08 A3003 RMK A01 T00161077  RH  050%=      5-min Rain = 0
KAD1 180049Z 17009KT 02/M08 A3003 RMK A01 T00161077  RH  050%=      5-min Rain = 0
KAD1 180050Z 17010KT 02/M08 A3003 RMK A01 T00161077  RH  050%=      5-min Rain = 0
KAD1 180051Z 17010KT 02/M08 A3003 RMK A01 T00151077  RH  050%=      5-min Rain = 0
KAD1 180052Z 17010KT 01/M08 A3003 RMK A01 T00141077  RH  050%=      5-min Rain = 0
KAD1 180053Z 17010KT 01/M08 A3003 RMK A01 T00141078  RH  050%=      5-min Rain = 0
KAD1 180054Z 17010KT 01/M08 A3003 RMK A01 T00141078  RH  051%=      5-min Rain = 0
KAD1 180055Z 17010KT 01/M08 A3003 RMK A01 T00141078  RH  051%=      5-min Rain = 0
KAD1 180056Z 18010KT 01/M08 A3003 RMK A01 T00131078  RH  051%=      5-min Rain = 0
KAD1 180057Z 17009KT 01/M08 A3003 RMK A01 T00131078  RH  051%=      5-min Rain = 0
KAD1 180058Z 18009KT 01/M08 A3003 RMK A01 T00111078  RH  051%=      5-min Rain = 0
KAD1 180059Z 17010KT 01/M08 A3003 RMK A01 T00101078  RH  052%=      5-min Rain = 0
KAD1 180100Z 18010KT 01/M08 A3003 RMK A01 T00101078  RH  052%=      5-min Rain = 0
KAD1 180101Z 18010KT 01/M08 A3003 RMK A01 T00091077  RH  053%=      5-min Rain = 0
KAD1 180102Z 18010KT 01/M08 A3003 RMK A01 T00091076  RH  053%=      5-min Rain = 0
KAD1 180103Z 18010KT 01/M08 A3003 RMK A01 T00091076  RH  053%=      5-min Rain = 0
KAD1 180104Z 18011KT 01/M08 A3003 RMK A01 T00091077  RH  053%=      5-min Rain = 0
KAD1 180105Z 18011KT 01/M08 A3003 RMK A01 T00101076  RH  053%=      5-min Rain = 0
KAD1 180106Z 18011KT 01/M08 A3003 RMK A01 T00101075  RH  053%=      5-min Rain = 0
KAD1 180107Z 18011KT 01/M08 A3003 RMK A01 T00101075  RH  053%=      5-min Rain = 0
KAD1 180108Z 18011KT 01/M08 A3003 RMK A01 T00091076  RH  053%=      5-min Rain = 0
KAD1 180109Z 18011KT 01/M08 A3003 RMK A01 T00091075  RH  053%=      5-min Rain = 0
KAD1 180110Z 18011KT 01/M08 A3003 RMK A01 T00091075  RH  053%=      5-min Rain = 0
KAD1 180111Z 18011KT 01/M08 A3003 RMK A01 T00091076  RH  053%=      5-min Rain = 0
KAD1 180112Z 18011KT 01/M08 A3003 RMK A01 T00101075  RH  053%=      5-min Rain = 0
KAD1 180113Z 18011KT 01/M08 A3003 RMK A01 T00101075  RH  053%=      5-min Rain = 0
KAD1 180114Z 18012KT 01/M08 A3003 RMK A01 T00101075  RH  053%=      5-min Rain = 0
KAD1 180115Z 18011KT 01/M07 A3004 RMK A01 T00101074  RH  053%=      5-min Rain = 0
KAD1 180116Z 18010KT 01/M07 A3004 RMK A01 T00111074  RH  053%=      5-min Rain = 0
KAD1 180117Z 18011KT 01/M08 A3004 RMK A01 T00101075  RH  053%=      5-min Rain = 0
KAD1 180118Z 18011KT 01/M08 A3004 RMK A01 T00091075  RH  053%=      5-min Rain = 0
KAD1 180119Z 18010KT 01/M08 A3003 RMK A01 T00091075  RH  053%=      5-min Rain = 0
KAD1 180120Z 18010KT 01/M08 A3003 RMK A01 T00091075  RH  053%=      5-min Rain = 0
KAD1 180121Z 18011KT 01/M07 A3003 RMK A01 T00101074  RH  053%=      5-min Rain = 0
KAD1 180122Z 18011KT 01/M07 A3003 RMK A01 T00101074  RH  053%=      5-min Rain = 0
KAD1 180123Z 18011KT 01/M07 A3003 RMK A01 T00111074  RH  053%=      5-min Rain = 0
KAD1 180124Z 18011KT 01/M07 A3003 RMK A01 T00121073  RH  053%=      5-min Rain = 0
KAD1 180125Z 18011KT 01/M07 A3003 RMK A01 T00121073  RH  053%=      5-min Rain = 0
KAD1 180126Z 18011KT 01/M07 A3003 RMK A01 T00111074  RH  053%=      5-min Rain = 0
KAD1 180127Z 18012KT 01/M07 A3003 RMK A01 T00101074  RH  054%=      5-min Rain = 0
KAD1 180128Z 18013KT 01/M07 A3003 RMK A01 T00091073  RH  054%=      5-min Rain = 0
KAD1 180129Z 18013KT 01/M07 A3003 RMK A01 T00091073  RH  054%=      5-min Rain = 0
KAD1 180130Z 18013KT 01/M07 A3003 RMK A01 T00091072  RH  054%=      5-min Rain = 0
KAD1 180131Z 18013KT 01/M07 A3003 RMK A01 T00101072  RH  054%=      5-min Rain = 0
KAD1 180132Z 19013KT 01/M07 A3003 RMK A01 T00111071  RH  054%=      5-min Rain = 0
KAD1 180133Z 18013KT 01/M07 A3003 RMK A01 T00141069  RH  054%=      5-min Rain = 0
KAD1 180134Z 19012KT 02/M07 A3003 RMK A01 T00161069  RH  053%=      5-min Rain = 0
KAD1 180135Z 19012KT 02/M07 A3003 RMK A01 T00171069  RH  053%=      5-min Rain = 0
KAD1 180136Z 19012KT 02/M07 A3003 RMK A01 T00171069  RH  053%=      5-min Rain = 0
KAD1 180137Z 18012KT 02/M07 A3003 RMK A01 T00181069  RH  053%=      5-min Rain = 0
KAD1 180138Z 18012KT 02/M07 A3003 RMK A01 T00181069  RH  052%=      5-min Rain = 0
KAD1 180139Z 18012KT 02/M07 A3003 RMK A01 T00171070  RH  053%=      5-min Rain = 0
KAD1 180140Z 18011KT 02/M07 A3003 RMK A01 T00161070  RH  053%=      5-min Rain = 0
KAD1 180141Z 18011KT 02/M07 A3003 RMK A01 T00151070  RH  053%=      5-min Rain = 0
KAD1 180142Z 19012KT 01/M07 A3003 RMK A01 T00141070  RH  054%=      5-min Rain = 0
KAD1 180143Z 18012KT 01/M07 A3003 RMK A01 T00141069  RH  054%=      5-min Rain = 0
KAD1 180144Z 18013KT 01/M07 A3003 RMK A01 T00141069  RH  054%=      5-min Rain = 0
KAD1 180145Z 19014KT 02/M07 A3002 RMK A01 T00151069  RH  054%=      5-min Rain = 0
KAD1 180146Z 19013KT 02/M07 A3002 RMK A01 T00151068  RH  054%=      5-min Rain = 0
KAD1 180147Z 19012KT 02/M07 A3002 RMK A01 T00171068  RH  053%=      5-min Rain = 0
KAD1 180148Z 18013KT 02/M07 A3002 RMK A01 T00171068  RH  053%=      5-min Rain = 0
KAD1 180149Z 19012KT 01/M07 A3002 RMK A01 T00141070  RH  053%=      5-min Rain = 0
KAD1 180150Z 19011KT 01/M07 A3002 RMK A01 T00131070  RH  054%=      5-min Rain = 0
KAD1 180151Z 18010KT 01/M07 A3002 RMK A01 T00121070  RH  054%=      5-min Rain = 0
KAD1 180152Z 18011KT 01/M07 A3002 RMK A01 T00101071  RH  055%=      5-min Rain = 0
KAD1 180153Z 18011KT 01/M07 A3002 RMK A01 T00081071  RH  055%=      5-min Rain = 0
KAD1 180154Z 18012KT 01/M07 A3002 RMK A01 T00081071  RH  056%=      5-min Rain = 0
KAD1 180155Z 18012KT 01/M07 A3002 RMK A01 T00081070  RH  056%=      5-min Rain = 0
KAD1 180156Z 18011KT 01/M07 A3002 RMK A01 T00081070  RH  056%=      5-min Rain = 0
KAD1 180157Z 18011KT 01/M07 A3002 RMK A01 T00091069  RH  056%=      5-min Rain = 0
KAD1 180158Z 18010KT 01/M07 A3002 RMK A01 T00091069  RH  056%=      5-min Rain = 0
KAD1 180159Z 18011KT 01/M07 A3002 RMK A01 T00091069  RH  056%=      5-min Rain = 0
KAD1 180200Z 18011KT 01/M07 A3002 RMK A01 T00091069  RH  056%=      5-min Rain = 0
KAD1 180201Z 18011KT 01/M07 A3002 RMK A01 T00091069  RH  056%=      5-min Rain = 0
KAD1 180202Z 18011KT 01/M07 A3002 RMK A01 T00091069  RH  056%=      5-min Rain = 0
KAD1 180203Z 18011KT 01/M07 A3002 RMK A01 T00091069  RH  056%=      5-min Rain = 0
KAD1 180204Z 18011KT 01/M07 A3002 RMK A01 T00091069  RH  056%=      5-min Rain = 0
KAD1 180205Z 18011KT 01/M07 A3002 RMK A01 T00091069  RH  056%=      5-min Rain = 0
KAD1 180206Z 18010KT 01/M07 A3002 RMK A01 T00081069  RH  056%=      5-min Rain = 0
KAD1 180207Z 18010KT 01/M07 A3002 RMK A01 T00071070  RH  056%=      5-min Rain = 0
KAD1 180208Z 18011KT 01/M07 A3002 RMK A01 T00071070  RH  057%=      5-min Rain = 0
KAD1 180209Z 19011KT 01/M07 A3002 RMK A01 T00061069  RH  057%=      5-min Rain = 0
KAD1 180210Z 19012KT 01/M07 A3002 RMK A01 T00061069  RH  057%=      5-min Rain = 0
KAD1 180211Z 19011KT 01/M07 A3002 RMK A01 T00061069  RH  057%=      5-min Rain = 0
KAD1 180212Z 19011KT 01/M07 A3002 RMK A01 T00071069  RH  057%=      5-min Rain = 0
KAD1 180213Z 19011KT 01/M07 A3002 RMK A01 T00071069  RH  057%=      5-min Rain = 0
KAD1 180214Z 19011KT 01/M07 A3002 RMK A01 T00071069  RH  057%=      5-min Rain = 0
KAD1 180215Z 19012KT 01/M07 A3002 RMK A01 T00051070  RH  057%=      5-min Rain = 0
KAD1 180216Z 19012KT 00/M07 A3002 RMK A01 T00041071  RH  057%=      5-min Rain = 0
KAD1 180217Z 19011KT 00/M07 A3002 RMK A01 T00041070  RH  058%=      5-min Rain = 0
KAD1 180218Z 19011KT 00/M07 A3002 RMK A01 T00031070  RH  058%=      5-min Rain = 0
KAD1 180219Z 19011KT 00/M07 A3002 RMK A01 T00031070  RH  058%=      5-min Rain = 0
KAD1 180220Z 19011KT 00/M07 A3002 RMK A01 T00031071  RH  058%=      5-min Rain = 0
KAD1 180221Z 19012KT 00/M07 A3002 RMK A01 T00021071  RH  058%=      5-min Rain = 0
KAD1 180222Z 19012KT 00/M07 A3002 RMK A01 T00021070  RH  059%=      5-min Rain = 0
KAD1 180223Z 19013KT 00/M07 A3002 RMK A01 T00021070  RH  058%=      5-min Rain = 0
KAD1 180224Z 19013KT 00/M07 A3002 RMK A01 T00031069  RH  058%=      5-min Rain = 0
KAD1 180225Z 19013KT 00/M07 A3002 RMK A01 T00041069  RH  058%=      5-min Rain = 0
KAD1 180226Z 19013KT 00/M07 A3002 RMK A01 T00041069  RH  058%=      5-min Rain = 0
KAD1 180227Z 19013KT 01/M07 A3002 RMK A01 T00051069  RH  058%=      5-min Rain = 0
KAD1 180228Z 19013KT 01/M07 A3001 RMK A01 T00061069  RH  057%=      5-min Rain = 0
KAD1 180229Z 19014KT 01/M07 A3001 RMK A01 T00061069  RH  057%=      5-min Rain = 0
KAD1 180230Z 19014KT 01/M07 A3001 RMK A01 T00071069  RH  057%=      5-min Rain = 0
KAD1 180231Z 19013KT 01/M07 A3001 RMK A01 T00081069  RH  057%=      5-min Rain = 0
KAD1 180232Z 19013KT 01/M07 A3001 RMK A01 T00081069  RH  057%=      5-min Rain = 0
KAD1 180233Z 19013KT 01/M07 A3001 RMK A01 T00081069  RH  057%=      5-min Rain = 0
KAD1 180234Z 19013KT 01/M07 A3001 RMK A01 T00071069  RH  057%=      5-min Rain = 0
KAD1 180235Z 19013KT 01/M07 A3001 RMK A01 T00071069  RH  057%=      5-min Rain = 0
KAD1 180236Z 19013KT 01/M07 A3001 RMK A01 T00061070  RH  057%=      5-min Rain = 0
KAD1 180237Z 19014KT 01/M07 A3001 RMK A01 T00051070  RH  057%=      5-min Rain = 0
KAD1 180238Z 19014KT 01/M07 A3001 RMK A01 T00051069  RH  058%=      5-min Rain = 0
KAD1 180239Z 19014KT 00/M07 A3001 RMK A01 T00041070  RH  058%=      5-min Rain = 0
KAD1 180240Z 19014KT 00/M07 A3001 RMK A01 T00041070  RH  058%=      5-min Rain = 0
KAD1 180241Z 19013KT 00/M07 A3001 RMK A01 T00041070  RH  058%=      5-min Rain = 0
KAD1 180242Z 19014KT 00/M07 A3001 RMK A01 T00031070  RH  058%=      5-min Rain = 0
KAD1 180243Z 19014KT 00/M07 A3001 RMK A01 T00031070  RH  058%=      5-min Rain = 0
KAD1 180244Z 19014KT 00/M07 A3001 RMK A01 T00021070  RH  058%=      5-min Rain = 0
KAD1 180245Z 19014KT 00/M07 A3001 RMK A01 T00021070  RH  058%=      5-min Rain = 0
KAD1 180246Z 19015KT 00/M07 A30 RMK A01 T00031070  RH  058%=      5-min Rain = 0
KAD1 180247Z 19015KT 00/M07 A30 RMK A01 T00041069  RH  058%=      5-min Rain = 0
KAD1 180248Z 19015KT 01/M07 A30 RMK A01 T00051069  RH  058%=      5-min Rain = 0
KAD1 180249Z 19015KT 01/M07 A30 RMK A01 T00051069  RH  057%=      5-min Rain = 0
KAD1 180250Z 19014KT 01/M07 A30 RMK A01 T00051070  RH  057%=      5-min Rain = 0
KAD1 180251Z 19015KT 01/M07 A30 RMK A01 T00051069  RH  057%=      5-min Rain = 0
KAD1 180252Z 19015KT 01/M07 A30 RMK A01 T00051070  RH  057%=      5-min Rain = 0
KAD1 180253Z 19015KT 00/M07 A30 RMK A01 T00041070  RH  057%=      5-min Rain = 0
KAD1 180254Z 19015KT 00/M07 A30 RMK A01 T00041070  RH  057%=      5-min Rain = 0
KAD1 180255Z 19015KT 00/M07 A30 RMK A01 T00041070  RH  057%=      5-min Rain = 0
KAD1 180256Z 19016KT 00/M07 A30 RMK A01 T00041070  RH  058%=      5-min Rain = 0
KAD1 180257Z 19014KT 01/M07 A30 RMK A01 T00051070  RH  057%=      5-min Rain = 0
KAD1 180258Z 19015KT 01/M07 A30 RMK A01 T00051070  RH  057%=      5-min Rain = 0
KAD1 180259Z 19015KT 01/M07 A30 RMK A01 T00051070  RH  057%=      5-min Rain = 0
KAD1 180300Z 19015KT 01/M07 A30 RMK A01 T00051069  RH  057%=      5-min Rain = 0
KAD1 180301Z 19016KT 01/M07 A30 RMK A01 T00061069  RH  057%=      5-min Rain = 0
KAD1 180302Z 19017KT 01/M07 A30 RMK A01 T00051069  RH  057%=      5-min Rain = 0
KAD1 180303Z 19017KT 01/M07 A30 RMK A01 T00061068  RH  057%=      5-min Rain = 0
KAD1 180304Z 19016KT 01/M07 A30 RMK A01 T00081068  RH  057%=      5-min Rain = 0
KAD1 180305Z 19016KT 01/M07 A30 RMK A01 T00081068  RH  057%=      5-min Rain = 0
KAD1 180306Z 19016KT 01/M07 A2999 RMK A01 T00071069  RH  057%=      5-min Rain = 0
KAD1 180307Z 19016KT 01/M07 A2999 RMK A01 T00071069  RH  057%=      5-min Rain = 0
KAD1 180308Z 19016KT 01/M07 A2999 RMK A01 T00061069  RH  057%=      5-min Rain = 0
KAD1 180309Z 19015KT 01/M07 A2999 RMK A01 T00061069  RH  057%=      5-min Rain = 0
KAD1 180310Z 19015KT 01/M07 A2999 RMK A01 T00061068  RH  057%=      5-min Rain = 0
KAD1 180311Z 20016KT 01/M07 A2999 RMK A01 T00051069  RH  057%=      5-min Rain = 0
KAD1 180312Z 19016KT 01/M07 A2999 RMK A01 T00051069  RH  058%=      5-min Rain = 0
KAD1 180313Z 19016KT 00/M07 A2999 RMK A01 T00041069  RH  058%=      5-min Rain = 0
KAD1 180314Z 19017KT 00/M07 A2999 RMK A01 T00041069  RH  058%=      5-min Rain = 0
KAD1 180315Z 19016KT 00/M07 A2999 RMK A01 T00041069  RH  058%=      5-min Rain = 0
KAD1 180316Z 19016KT 00/M07 A2999 RMK A01 T00031069  RH  058%=      5-min Rain = 0
KAD1 180317Z 20017KT 00/M07 A2999 RMK A01 T00041068  RH  059%=      5-min Rain = 0
KAD1 180318Z 20015KT 00/M07 A2999 RMK A01 T00041068  RH  058%=      5-min Rain = 0
KAD1 180319Z 20017KT 01/M07 A2999 RMK A01 T00051068  RH  058%=      5-min Rain = 0
KAD1 180320Z 20016KT 01/M07 A2999 RMK A01 T00051067  RH  058%=      5-min Rain = 0
KAD1 180321Z 20016KT 01/M07 A2998 RMK A01 T00051067  RH  058%=      5-min Rain = 0
KAD1 180322Z 20018KT 01/M07 A2998 RMK A01 T00051067  RH  058%=      5-min Rain = 0
KAD1 180323Z 20018KT 01/M07 A2998 RMK A01 T00061066  RH  058%=      5-min Rain = 0
KAD1 180324Z 19018KT 01/M07 A2998 RMK A01 T00081066  RH  058%=      5-min Rain = 0
KAD1 180325Z 19018KT 01/M07 A2998 RMK A01 T00081065  RH  058%=      5-min Rain = 0
KAD1 180326Z 19019KT 01/M07 A2998 RMK A01 T00091065  RH  058%=      5-min Rain = 0
KAD1 180327Z 19020KT 01/M06 A2998 RMK A01 T00111064  RH  058%=      5-min Rain = 0
KAD1 180328Z 19018KT 01/M06 A2998 RMK A01 T00111064  RH  057%=      5-min Rain = 0
KAD1 180329Z 20019KT 01/M06 A2998 RMK A01 T00111064  RH  057%=      5-min Rain = 0
KAD1 180330Z 19019KT 01/M07 A2998 RMK A01 T00101065  RH  057%=      5-min Rain = 0
KAD1 180331Z 19019KT 01/M07 A2998 RMK A01 T00091065  RH  058%=      5-min Rain = 0
KAD1 180332Z 19020KT 01/M07 A2998 RMK A01 T00091065  RH  058%=      5-min Rain = 0
KAD1 180333Z 19019KT 01/M07 A2998 RMK A01 T00081065  RH  058%=      5-min Rain = 0
KAD1 180334Z 19019KT 01/M07 A2998 RMK A01 T00081065  RH  058%=      5-min Rain = 0
KAD1 180335Z 19019KT 01/M07 A2998 RMK A01 T00081065  RH  058%=      5-min Rain = 0
KAD1 180336Z 19019KT 01/M06 A2998 RMK A01 T00091064  RH  058%=      5-min Rain = 0
KAD1 180337Z 19018KT 01/M07 A2998 RMK A01 T00091065  RH  058%=      5-min Rain = 0
KAD1 180338Z 20019KT 01/M07 A2998 RMK A01 T00081065  RH  058%=      5-min Rain = 0
KAD1 180339Z 19018KT 01/M06 A2998 RMK A01 T00081064  RH  058%=      5-min Rain = 0
KAD1 180340Z 19019KT 01/M07 A2998 RMK A01 T00071065  RH  058%=      5-min Rain = 0
KAD1 180341Z 19019KT 01/M07 A2997 RMK A01 T00061066  RH  059%=      5-min Rain = 0
KAD1 180342Z 19018KT 01/M07 A2997 RMK A01 T00051065  RH  059%=      5-min Rain = 0
KAD1 180343Z 19018KT 01/M07 A2997 RMK A01 T00051065  RH  059%=      5-min Rain = 0
KAD1 180344Z 19017KT 00/M07 A2997 RMK A01 T00031066  RH  060%=      5-min Rain = 0
KAD1 180345Z 20018KT 00/M07 A2997 RMK A01 T00021066  RH  060%=      5-min Rain = 0
KAD1 180346Z 19016KT 00/M07 A2997 RMK A01 T00021066  RH  060%=      5-min Rain = 0
KAD1 180347Z 19018KT 00/M07 A2997 RMK A01 T00011066  RH  061%=      5-min Rain = 0
KAD1 180348Z 19018KT 00/M07 A2997 RMK A01 T00011065  RH  061%=      5-min Rain = 0
KAD1 180349Z 19017KT 00/M07 A2997 RMK A01 T00011065  RH  061%=      5-min Rain = 0
KAD1 180350Z 19018KT 00/M07 A2997 RMK A01 T00011065  RH  061%=      5-min Rain = 0
KAD1 180351Z 19017KT 00/M07 A2997 RMK A01 T00011065  RH  061%=      5-min Rain = 0
KAD1 180352Z 19017KT 00/07 A2997 RMK A01 T00000-65  RH  061%=      5-min Rain = 0
KAD1 180353Z 19017KT 00/M07 A2997 RMK A01 T00011065  RH  061%=      5-min Rain = 0
KAD1 180354Z 19017KT 00/M07 A2997 RMK A01 T00011065  RH  061%=      5-min Rain = 0
KAD1 180355Z 19018KT 00/M07 A2997 RMK A01 T00011065  RH  061%=      5-min Rain = 0
KAD1 180356Z 19017KT 00/M07 A2997 RMK A01 T00011065  RH  061%=      5-min Rain = 0
KAD1 180357Z 19018KT 00/07 A2997 RMK A01 T00-00-65  RH  062%=      5-min Rain = 0
KAD1 180358Z 19017KT 00/07 A2997 RMK A01 T00-00-65  RH  062%=      5-min Rain = 0
KAD1 180359Z 19018KT 00/07 A2997 RMK A01 T00-00-65  RH  062%=      5-min Rain = 0
KAD1 180400Z 19018KT 00/06 A2997 RMK A01 T00-00-64  RH  062%=      5-min Rain = 0
KAD1 180401Z 19018KT M00/M07 A2997 RMK A01 T10011065  RH  062%=      5-min Rain = 0
KAD1 180402Z 19018KT M00/M06 A2997 RMK A01 T10011064  RH  062%=      5-min Rain = 0
KAD1 180403Z 19018KT M00/M06 A2997 RMK A01 T10011064  RH  062%=      5-min Rain = 0
KAD1 180404Z 19018KT M00/M07 A2996 RMK A01 T10021065  RH  062%=      5-min Rain = 0
KAD1 180405Z 19017KT M00/M06 A2996 RMK A01 T10021064  RH  063%=      5-min Rain = 0
KAD1 180406Z 19017KT M00/M06 A2996 RMK A01 T10021064  RH  063%=      5-min Rain = 0
KAD1 180407Z 19018KT M00/M06 A2996 RMK A01 T10021064  RH  063%=      5-min Rain = 0
KAD1 180408Z 19018KT M00/M06 A2996 RMK A01 T10011064  RH  063%=      5-min Rain = 0
KAD1 180409Z 19019KT M00/M06 A2996 RMK A01 T10011063  RH  063%=      5-min Rain = 0
KAD1 180410Z 19018KT M00/M06 A2996 RMK A01 T10011063  RH  063%=      5-min Rain = 0
KAD1 180411Z 19018KT M00/M06 A2996 RMK A01 T10011063  RH  063%=      5-min Rain = 0
KAD1 180412Z 19017KT 00/06 A2996 RMK A01 T00-00-63  RH  063%=      5-min Rain = 0
KAD1 180413Z 20017KT M00/M06 A2996 RMK A01 T10011063  RH  063%=      5-min Rain = 0
KAD1 180414Z 19018G23KT M00/M06 A2996 RMK A01 T10011063  RH  063%=      5-min Rain = 0
KAD1 180415Z 19019KT M00/M06 A2996 RMK A01 T10011063  RH  063%=      5-min Rain = 0
KAD1 180416Z 19017KT M00/M06 A2996 RMK A01 T10011063  RH  063%=      5-min Rain = 0
KAD1 180417Z 19018KT M00/M06 A2996 RMK A01 T10011062  RH  063%=      5-min Rain = 0
KAD1 180418Z 19018KT M00/M06 A2996 RMK A01 T10011062  RH  063%=      5-min Rain = 0
KAD1 180419Z 19018KT M00/M06 A2996 RMK A01 T10011062  RH  063%=      5-min Rain = 0
KAD1 180420Z 19019KT M00/M06 A2995 RMK A01 T10011062  RH  064%=      5-min Rain = 0
KAD1 180421Z 19019KT M00/M06 A2995 RMK A01 T10011062  RH  064%=      5-min Rain = 0
KAD1 180422Z 19019KT M00/M06 A2995 RMK A01 T10011061  RH  064%=      5-min Rain = 0
KAD1 180423Z 19018KT 00/06 A2995 RMK A01 T00000-61  RH  064%=      5-min Rain = 0
KAD1 180424Z 19018KT 00/06 A2995 RMK A01 T00000-61  RH  064%=      5-min Rain = 0
KAD1 180425Z 19019KT 00/06 A2995 RMK A01 T00000-60  RH  064%=      5-min Rain = 0
KAD1 180426Z 19018KT 00/M06 A2995 RMK A01 T00011059  RH  064%=      5-min Rain = 0
KAD1 180427Z 19019KT 00/M06 A2995 RMK A01 T00021059  RH  064%=      5-min Rain = 0
KAD1 180428Z 19020KT 00/M06 A2995 RMK A01 T00021059  RH  064%=      5-min Rain = 0
KAD1 180429Z 19020KT 00/M06 A2995 RMK A01 T00031058  RH  063%=      5-min Rain = 0
KAD1 180430Z 19020KT 00/M06 A2995 RMK A01 T00041058  RH  063%=      5-min Rain = 0
KAD1 180431Z 19020KT 00/M06 A2995 RMK A01 T00041058  RH  063%=      5-min Rain = 0
KAD1 180432Z 20019KT 00/M06 A2995 RMK A01 T00041058  RH  063%=      5-min Rain = 0
KAD1 180433Z 20019KT 00/M06 A2995 RMK A01 T00041058  RH  063%=      5-min Rain = 0
KAD1 180434Z 19020KT 01/M06 A2995 RMK A01 T00051057  RH  063%=      5-min Rain = 0
KAD1 180435Z 19020KT 01/M06 A2995 RMK A01 T00051058  RH  063%=      5-min Rain = 0
KAD1 180436Z 19019KT 01/M06 A2995 RMK A01 T00051058  RH  063%=      5-min Rain = 0
KAD1 180437Z 19020KT 01/M06 A2995 RMK A01 T00051057  RH  063%=      5-min Rain = 0
KAD1 180438Z 19020KT 01/M06 A2995 RMK A01 T00051057  RH  063%=      5-min Rain = 0
KAD1 180439Z 19020KT 01/M06 A2995 RMK A01 T00051057  RH  063%=      5-min Rain = 0
KAD1 180440Z 19019KT 01/M06 A2995 RMK A01 T00051057  RH  063%=      5-min Rain = 0
KAD1 180441Z 19018KT 01/M06 A2995 RMK A01 T00051057  RH  063%=      5-min Rain = 0
KAD1 180442Z 19019KT 01/M06 A2995 RMK A01 T00051057  RH  063%=      5-min Rain = 0
KAD1 180443Z 19019KT 01/M06 A2994 RMK A01 T00051057  RH  063%=      5-min Rain = 0
KAD1 180444Z 20018KT 00/M06 A2994 RMK A01 T00041057  RH  063%=      5-min Rain = 0
KAD1 180445Z 19018KT 00/M06 A2994 RMK A01 T00041057  RH  063%=      5-min Rain = 0
KAD1 180446Z 19019KT 00/M06 A2994 RMK A01 T00041057  RH  064%=      5-min Rain = 0
KAD1 180447Z 20019KT 00/M06 A2994 RMK A01 T00041057  RH  064%=      5-min Rain = 0
KAD1 180448Z 20018KT 00/M06 A2994 RMK A01 T00041057  RH  064%=      5-min Rain = 0
KAD1 180449Z 20018KT 00/M06 A2994 RMK A01 T00041057  RH  064%=      5-min Rain = 0
KAD1 180450Z 19017G22KT 00/M06 A2994 RMK A01 T00031057  RH  064%=      5-min Rain = 0
KAD1 180451Z 20019KT 00/M06 A2994 RMK A01 T00021057  RH  064%=      5-min Rain = 0
KAD1 180452Z 19019KT 00/M06 A2994 RMK A01 T00021057  RH  065%=      5-min Rain = 0
KAD1 180453Z 20018KT 00/M06 A2994 RMK A01 T00021057  RH  065%=      5-min Rain = 0
KAD1 180454Z 19018KT 00/M06 A2994 RMK A01 T00021057  RH  065%=      5-min Rain = 0
KAD1 180455Z 20019KT 00/M06 A2994 RMK A01 T00031056  RH  065%=      5-min Rain = 0
KAD1 180456Z 19019KT 00/M06 A2994 RMK A01 T00021057  RH  065%=      5-min Rain = 0
KAD1 180457Z 19019KT 00/M06 A2994 RMK A01 T00021056  RH  065%=      5-min Rain = 0
KAD1 180458Z 19018KT 00/M06 A2994 RMK A01 T00031056  RH  065%=      5-min Rain = 0
KAD1 180459Z 19019KT 00/M06 A2994 RMK A01 T00031056  RH  065%=      5-min Rain = 0
KAD1 180500Z 19019KT 00/M06 A2994 RMK A01 T00031056  RH  065%=      5-min Rain = 0
KAD1 180501Z 19020G26KT 00/M06 A2994 RMK A01 T00031056  RH  065%=      5-min Rain = 0
KAD1 180502Z 19020KT 00/M06 A2993 RMK A01 T00031056  RH  065%=      5-min Rain = 0
KAD1 180503Z 19019G26KT 00/M06 A2993 RMK A01 T00031055  RH  065%=      5-min Rain = 0
KAD1 180504Z 19021KT 00/M06 A2993 RMK A01 T00041055  RH  065%=      5-min Rain = 0
KAD1 180505Z 19021KT 00/M06 A2993 RMK A01 T00041055  RH  065%=      5-min Rain = 0
KAD1 180506Z 19019G24KT 00/M06 A2993 RMK A01 T00041055  RH  064%=      5-min Rain = 0
KAD1 180507Z 19018KT 00/M06 A2993 RMK A01 T00041055  RH  065%=      5-min Rain = 0
KAD1 180508Z 19020KT 00/M06 A2993 RMK A01 T00041055  RH  065%=      5-min Rain = 0
KAD1 180509Z 19019KT 00/M06 A2993 RMK A01 T00031055  RH  065%=      5-min Rain = 0
KAD1 180510Z 19020KT 00/M06 A2993 RMK A01 T00031055  RH  065%=      5-min Rain = 0
KAD1 180511Z 19019KT 00/M06 A2993 RMK A01 T00031055  RH  065%=      5-min Rain = 0
KAD1 180512Z 19019KT 00/M05 A2993 RMK A01 T00041054  RH  065%=      5-min Rain = 0
KAD1 180513Z 19020KT 00/M06 A2993 RMK A01 T00041055  RH  065%=      5-min Rain = 0
KAD1 180514Z 19019KT 00/M05 A2993 RMK A01 T00041054  RH  065%=      5-min Rain = 0
KAD1 180515Z 19020KT 00/M05 A2993 RMK A01 T00041054  RH  065%=      5-min Rain = 0
KAD1 180516Z 20019KT 00/M05 A2993 RMK A01 T00041054  RH  065%=      5-min Rain = 0
KAD1 180517Z 20020KT 00/M05 A2993 RMK A01 T00031054  RH  065%=      5-min Rain = 0
KAD1 180518Z 20019KT 00/M05 A2993 RMK A01 T00031054  RH  065%=      5-min Rain = 0
KAD1 180519Z 19019KT 00/M05 A2993 RMK A01 T00041053  RH  065%=      5-min Rain = 0
KAD1 180520Z 19018KT 01/M05 A2993 RMK A01 T00051053  RH  065%=      5-min Rain = 0
KAD1 180521Z 20018KT 01/M05 A2993 RMK A01 T00051053  RH  065%=      5-min Rain = 0
KAD1 180522Z 19019KT 01/M05 A2993 RMK A01 T00051053  RH  065%=      5-min Rain = 0
KAD1 180523Z 19020KT 01/M05 A2993 RMK A01 T00051053  RH  065%=      5-min Rain = 0
KAD1 180524Z 19020KT 01/M05 A2993 RMK A01 T00051053  RH  065%=      5-min Rain = 0
KAD1 180525Z 19019KT 01/M05 A2993 RMK A01 T00061053  RH  065%=      5-min Rain = 0
KAD1 180526Z 19019KT 01/M05 A2993 RMK A01 T00061053  RH  065%=      5-min Rain = 0
KAD1 180527Z 20020KT 01/M05 A2993 RMK A01 T00061053  RH  065%=      5-min Rain = 0
KAD1 180528Z 20020KT 01/M05 A2993 RMK A01 T00061053  RH  065%=      5-min Rain = 0
KAD1 180529Z 20019KT 01/M05 A2993 RMK A01 T00061053  RH  065%=      5-min Rain = 0
KAD1 180530Z 20019KT 01/M05 A2993 RMK A01 T00061053  RH  065%=      5-min Rain = 0
KAD1 180531Z 19019KT 01/M05 A2992 RMK A01 T00061052  RH  065%=      5-min Rain = 0
KAD1 180532Z 20019KT 01/M05 A2992 RMK A01 T00061053  RH  065%=      5-min Rain = 0
KAD1 180533Z 19018KT 01/M05 A2992 RMK A01 T00061053  RH  065%=      5-min Rain = 0
KAD1 180534Z 20019KT 01/M05 A2992 RMK A01 T00061053  RH  065%=      5-min Rain = 0
KAD1 180535Z 20020KT 01/M05 A2992 RMK A01 T00071052  RH  065%=      5-min Rain = 0
KAD1 180536Z 20019KT 01/M05 A2992 RMK A01 T00081052  RH  064%=      5-min Rain = 0
KAD1 180537Z 20019KT 01/M05 A2992 RMK A01 T00081052  RH  064%=      5-min Rain = 0
KAD1 180538Z 20019KT 01/M05 A2992 RMK A01 T00081052  RH  064%=      5-min Rain = 0
KAD1 180539Z 20019KT 01/M05 A2992 RMK A01 T00081052  RH  064%=      5-min Rain = 0
KAD1 180540Z 20019KT 01/M05 A2992 RMK A01 T00081052  RH  064%=      5-min Rain = 0
KAD1 180541Z 20020KT 01/M05 A2992 RMK A01 T00081052  RH  064%=      5-min Rain = 0
KAD1 180542Z 20019KT 01/M05 A2992 RMK A01 T00091052  RH  064%=      5-min Rain = 0
KAD1 180543Z 20020KT 01/M05 A2991 RMK A01 T00081052  RH  064%=      5-min Rain = 0
KAD1 180544Z 19020KT 01/M05 A2991 RMK A01 T00091051  RH  064%=      5-min Rain = 0
KAD1 180545Z 20019KT 01/M05 A2991 RMK A01 T00091052  RH  064%=      5-min Rain = 0
KAD1 180546Z 20020KT 01/M05 A2991 RMK A01 T00091052  RH  064%=      5-min Rain = 0
KAD1 180547Z 20019KT 01/M05 A2991 RMK A01 T00091052  RH  064%=      5-min Rain = 0
KAD1 180548Z 20020KT 01/M05 A2991 RMK A01 T00091052  RH  064%=      5-min Rain = 0
KAD1 180549Z 20020KT 01/M05 A2991 RMK A01 T00091052  RH  064%=      5-min Rain = 0
KAD1 180550Z 20020KT 01/M05 A2991 RMK A01 T00101052  RH  063%=      5-min Rain = 0
KAD1 180551Z 20020KT 01/M05 A2991 RMK A01 T00101052  RH  063%=      5-min Rain = 0
KAD1 180552Z 20020KT 01/M05 A2991 RMK A01 T00101052  RH  063%=      5-min Rain = 0
KAD1 180553Z 20020KT 01/M05 A2991 RMK A01 T00101052  RH  063%=      5-min Rain = 0
KAD1 180554Z 20021KT 01/M05 A2991 RMK A01 T00101052  RH  063%=      5-min Rain = 0
KAD1 180555Z 20020KT 01/M05 A2991 RMK A01 T00091053  RH  063%=      5-min Rain = 0
KAD1 180556Z 20019KT 01/M05 A2991 RMK A01 T00091052  RH  063%=      5-min Rain = 0
KAD1 180557Z 20020KT 01/M05 A2991 RMK A01 T00091053  RH  063%=      5-min Rain = 0
KAD1 180558Z 20021KT 01/M05 A2991 RMK A01 T00091053  RH  063%=      5-min Rain = 0
KAD1 180559Z 19020KT 01/M05 A2991 RMK A01 T00101053  RH  063%=      5-min Rain = 0

Page generated in 0.1597 seconds.